GIA950 WIPP-OEJN

Flight info

Callsign GIA950
Flight time 9h 6m
Altitude 36000
Route KUALA W12 PKU P570 VEVET/N0469F380 P570 TVM V26 ANODA UL425 DONSA P323 TOKPU/N0464F400 P323 WDR V31 DATVA Q11 BOSUT
Aircraft A333/H-SDE2E3FGHIJ2J4M1RWXYZ/LB1D1

Departure

Time 2026-05-07 16:17
Airport Sultan Mahmud Badaruddin II Airport (WIPP)

Arrival

Time 2026-05-08 01:23
Airport King Abdulaziz International Airport (OEJN)
Time Latitude Longitude Altitude Speed Heading
2026-05-07 15:36 -2.89626 104.70431 51 ft 0 kts 22°
2026-05-07 16:02 -2.89627 104.70431 50 ft 1 kts 22°
2026-05-07 16:02 -2.89641 104.70425 51 ft 2 kts 24°
2026-05-07 16:03 -2.89654 104.70419 51 ft 2 kts 23°
2026-05-07 16:03 -2.89667 104.70413 51 ft 2 kts 23°
2026-05-07 16:03 -2.89679 104.70404 51 ft 2 kts 65°
2026-05-07 16:03 -2.89682 104.70385 50 ft 2 kts 109°
2026-05-07 16:04 -2.89678 104.70376 50 ft 2 kts 114°
2026-05-07 16:04 -2.89673 104.70362 50 ft 2 kts 109°
2026-05-07 16:04 -2.89670 104.70353 50 ft 1 kts 111°
2026-05-07 16:04 -2.89669 104.70352 50 ft 0 kts 111°
2026-05-07 16:07 -2.89672 104.70360 50 ft 2 kts 113°
2026-05-07 16:08 -2.89684 104.70386 50 ft 5 kts 114°
2026-05-07 16:08 -2.89704 104.70430 51 ft 8 kts 113°
2026-05-07 16:08 -2.89730 104.70492 52 ft 10 kts 113°
2026-05-07 16:08 -2.89806 104.70547 52 ft 11 kts 189°
2026-05-07 16:09 -2.89848 104.70493 52 ft 12 kts 277°
2026-05-07 16:09 -2.89826 104.70400 51 ft 14 kts 292°
2026-05-07 16:09 -2.89799 104.70334 49 ft 15 kts 291°
2026-05-07 16:09 -2.89744 104.70205 47 ft 14 kts 293°
2026-05-07 16:10 -2.89719 104.70145 47 ft 13 kts 293°
2026-05-07 16:10 -2.89676 104.70039 46 ft 11 kts 292°
2026-05-07 16:10 -2.89657 104.69992 46 ft 10 kts 292°
2026-05-07 16:10 -2.89625 104.69923 47 ft 6 kts 295°
2026-05-07 16:11 -2.89609 104.69889 47 ft 4 kts 295°
2026-05-07 16:11 -2.89601 104.69870 47 ft 4 kts 295°
2026-05-07 16:11 -2.89580 104.69825 48 ft 6 kts 293°
2026-05-07 16:11 -2.89556 104.69770 48 ft 10 kts 293°
2026-05-07 16:12 -2.89536 104.69722 49 ft 12 kts 292°
2026-05-07 16:12 -2.89486 104.69598 49 ft 16 kts 291°
2026-05-07 16:12 -2.89454 104.69520 49 ft 19 kts 293°
2026-05-07 16:12 -2.89402 104.69395 51 ft 18 kts 291°
2026-05-07 16:13 -2.89397 104.69266 56 ft 11 kts 227°
2026-05-07 16:13 -2.89435 104.69240 58 ft 9 kts 208°
2026-05-07 16:13 -2.89483 104.69191 59 ft 10 kts 261°
2026-05-07 16:13 -2.89456 104.69100 61 ft 10 kts 292°
2026-05-07 16:14 -2.89438 104.69055 62 ft 10 kts 292°
2026-05-07 16:14 -2.89410 104.68990 63 ft 10 kts 293°
2026-05-07 16:14 -2.89384 104.68930 65 ft 8 kts 293°
2026-05-07 16:14 -2.89346 104.68845 68 ft 10 kts 292°
2026-05-07 16:15 -2.89325 104.68793 68 ft 13 kts 292°
2026-05-07 16:15 -2.89284 104.68692 68 ft 17 kts 292°
2026-05-07 16:15 -2.89269 104.68577 68 ft 9 kts 280°
2026-05-07 16:15 -2.89239 104.68583 68 ft 4 kts 73°
2026-05-07 16:16 -2.89256 104.68629 68 ft 7 kts 112°
2026-05-07 16:16 -2.89294 104.68720 68 ft 41 kts 112°
2026-05-07 16:16 -2.89504 104.69217 58 ft 111 kts 113°
2026-05-07 16:16 -2.89885 104.70132 58 ft 167 kts 112°
2026-05-07 16:17 -2.90455 104.71552 1004 ft 159 kts 111°
2026-05-07 16:17 -2.90692 104.72250 1392 ft 156 kts 105°
2026-05-07 16:17 -2.91007 104.73294 1720 ft 160 kts 111°
2026-05-07 16:17 -2.91789 104.74134 1876 ft 176 kts 153°
2026-05-07 16:18 -2.93071 104.74228 2073 ft 197 kts 192°
2026-05-07 16:18 -2.94274 104.73423 2259 ft 221 kts 228°
2026-05-07 16:18 -2.94966 104.71957 2430 ft 241 kts 246°
2026-05-07 16:18 -2.95683 104.70385 2682 ft 254 kts 239°
2026-05-07 16:19 -2.96544 104.68756 2977 ft 272 kts 239°
2026-05-07 16:19 -2.97784 104.66502 3830 ft 278 kts 238°
2026-05-07 16:19 -2.98732 104.64799 4519 ft 281 kts 238°
2026-05-07 16:19 -2.99370 104.63654 4957 ft 283 kts 238°
2026-05-07 16:20 -3.00336 104.61925 5629 ft 285 kts 238°
2026-05-07 16:20 -3.01310 104.60179 6269 ft 288 kts 239°
2026-05-07 16:20 -3.02294 104.58416 6926 ft 290 kts 239°
2026-05-07 16:20 -3.03292 104.56628 7563 ft 294 kts 239°
2026-05-07 16:21 -3.04302 104.54819 8026 ft 301 kts 239°
2026-05-07 16:21 -3.05323 104.52962 8651 ft 301 kts 244°
2026-05-07 16:21 -3.05833 104.50943 9285 ft 300 kts 269°
2026-05-07 16:21 -3.05359 104.48195 10027 ft 303 kts 284°
2026-05-07 16:22 -3.05051 104.46807 10257 ft 311 kts 283°
2026-05-07 16:22 -3.04570 104.44601 10248 ft 335 kts 283°
2026-05-07 16:22 -3.04058 104.42232 10287 ft 354 kts 283°
2026-05-07 16:22 -3.03520 104.39736 10317 ft 372 kts 283°
2026-05-07 16:23 -3.02778 104.36300 10857 ft 379 kts 283°
2026-05-07 16:23 -3.02407 104.34579 11188 ft 380 kts 283°
2026-05-07 16:23 -3.01843 104.31966 11604 ft 383 kts 283°
2026-05-07 16:23 -3.01272 104.29323 12025 ft 386 kts 283°
2026-05-07 16:24 -3.00510 104.25794 12599 ft 389 kts 283°
2026-05-07 16:24 -3.00125 104.24013 12884 ft 391 kts 283°
2026-05-07 16:24 -2.99300 104.21404 13220 ft 392 kts 296°
2026-05-07 16:24 -2.97737 104.18088 13757 ft 394 kts 296°
2026-05-07 16:25 -2.96563 104.15574 14114 ft 397 kts 296°
2026-05-07 16:25 -2.95777 104.13888 14352 ft 399 kts 296°
2026-05-07 16:25 -2.94199 104.10499 14798 ft 403 kts 296°
2026-05-07 16:25 -2.93006 104.07937 15142 ft 405 kts 296°
2026-05-07 16:26 -2.92236 104.06205 15370 ft 407 kts 294°
2026-05-07 16:26 -2.91096 104.03584 15762 ft 408 kts 295°
2026-05-07 16:26 -2.89946 104.00945 16080 ft 411 kts 295°
2026-05-07 16:26 -2.88794 103.98305 16407 ft 413 kts 295°
2026-05-07 16:27 -2.87632 103.95641 16733 ft 415 kts 295°
2026-05-07 16:27 -2.86465 103.92964 17055 ft 417 kts 295°
2026-05-07 16:27 -2.85294 103.90282 17413 ft 418 kts 295°
2026-05-07 16:27 -2.83730 103.86696 17775 ft 422 kts 295°
2026-05-07 16:28 -2.82526 103.83992 18046 ft 425 kts 295°
2026-05-07 16:28 -2.81714 103.82182 18270 ft 426 kts 295°
2026-05-07 16:28 -2.80493 103.79460 18611 ft 426 kts 296°
2026-05-07 16:28 -2.79271 103.76736 18867 ft 429 kts 296°
2026-05-07 16:29 -2.77626 103.73067 19230 ft 432 kts 296°
2026-05-07 16:29 -2.76745 103.71242 19403 ft 431 kts 301°
2026-05-07 16:29 -2.74105 103.68255 19673 ft 428 kts 324°
2026-05-07 16:29 -2.72402 103.67213 19847 ft 426 kts 336°
2026-05-07 16:30 -2.69589 103.66235 20128 ft 424 kts 345°
2026-05-07 16:30 -2.66750 103.65323 20356 ft 426 kts 344°
2026-05-07 16:30 -2.63390 103.64216 20667 ft 427 kts 343°
2026-05-07 16:30 -2.61517 103.63593 20815 ft 429 kts 343°
2026-05-07 16:31 -2.58693 103.62652 21035 ft 430 kts 343°
2026-05-07 16:31 -2.55807 103.61689 21273 ft 432 kts 343°
2026-05-07 16:31 -2.52926 103.60723 21481 ft 433 kts 344°
2026-05-07 16:31 -2.50030 103.59753 21664 ft 436 kts 343°
2026-05-07 16:32 -2.46276 103.58495 21953 ft 437 kts 344°
2026-05-07 16:32 -2.44456 103.57885 22080 ft 438 kts 344°
2026-05-07 16:32 -2.41524 103.56903 22290 ft 439 kts 344°
2026-05-07 16:32 -2.37595 103.55587 22518 ft 442 kts 344°
2026-05-07 16:33 -2.34646 103.54599 22696 ft 444 kts 344°
2026-05-07 16:33 -2.32673 103.53938 22835 ft 444 kts 343°
2026-05-07 16:33 -2.29711 103.52945 23060 ft 445 kts 344°
2026-05-07 16:33 -2.25744 103.51617 23269 ft 448 kts 343°
2026-05-07 16:34 -2.23750 103.50949 23389 ft 449 kts 343°
2026-05-07 16:34 -2.20753 103.49945 23615 ft 449 kts 343°
2026-05-07 16:34 -2.17753 103.48940 23806 ft 450 kts 343°
2026-05-07 16:34 -2.14752 103.47935 23967 ft 452 kts 343°
2026-05-07 16:35 -2.11722 103.46919 24137 ft 454 kts 343°
2026-05-07 16:35 -2.08692 103.45905 24333 ft 454 kts 343°
2026-05-07 16:35 -2.05656 103.44888 24501 ft 456 kts 343°
2026-05-07 16:35 -2.01587 103.43526 24693 ft 459 kts 343°
2026-05-07 16:36 -1.99545 103.42842 24816 ft 459 kts 343°
2026-05-07 16:36 -1.96479 103.41815 25016 ft 460 kts 343°
2026-05-07 16:36 -1.93400 103.40784 25189 ft 461 kts 343°
2026-05-07 16:36 -1.89277 103.39404 25389 ft 463 kts 343°
2026-05-07 16:37 -1.86184 103.38368 25567 ft 464 kts 343°
2026-05-07 16:37 -1.84118 103.37676 25683 ft 465 kts 343°
2026-05-07 16:37 -1.81018 103.36639 25832 ft 466 kts 343°
2026-05-07 16:37 -1.76852 103.35244 26047 ft 468 kts 343°
2026-05-07 16:38 -1.73727 103.34197 26194 ft 469 kts 343°
2026-05-07 16:38 -1.71634 103.33497 26268 ft 471 kts 343°
2026-05-07 16:38 -1.68497 103.32448 26484 ft 469 kts 343°
2026-05-07 16:38 -1.65374 103.31402 26624 ft 469 kts 343°
2026-05-07 16:39 -1.62232 103.30349 26716 ft 470 kts 343°
2026-05-07 16:39 -1.59097 103.29300 26826 ft 471 kts 343°
2026-05-07 16:39 -1.55950 103.28246 26951 ft 469 kts 343°
2026-05-07 16:39 -1.51758 103.26843 26949 ft 473 kts 343°
2026-05-07 16:40 -1.48578 103.25781 26941 ft 476 kts 343°
2026-05-07 16:40 -1.45420 103.24720 27201 ft 471 kts 343°
2026-05-07 16:40 -1.43323 103.24020 27315 ft 469 kts 343°
2026-05-07 16:40 -1.40176 103.22967 27344 ft 470 kts 342°
2026-05-07 16:41 -1.37029 103.21916 27262 ft 476 kts 343°
2026-05-07 16:41 -1.32795 103.20498 27446 ft 475 kts 343°
2026-05-07 16:41 -1.29598 103.19429 27423 ft 480 kts 343°
2026-05-07 16:41 -1.26389 103.18355 27596 ft 480 kts 343°
2026-05-07 16:42 -1.24258 103.17640 27714 ft 480 kts 343°
2026-05-07 16:42 -1.21041 103.16566 27813 ft 481 kts 343°
2026-05-07 16:42 -1.17847 103.15495 27927 ft 482 kts 343°
2026-05-07 16:42 -1.13754 103.13521 27983 ft 489 kts 326°
2026-05-07 16:43 -1.12017 103.12029 28014 ft 492 kts 316°
2026-05-07 16:43 -1.09626 103.09534 28147 ft 493 kts 315°
2026-05-07 16:43 -1.07211 103.07062 28280 ft 493 kts 315°
2026-05-07 16:43 -1.03977 103.03766 28422 ft 494 kts 315°
2026-05-07 16:44 -1.02349 103.02112 28472 ft 495 kts 315°
2026-05-07 16:44 -0.99907 102.99629 28593 ft 496 kts 315°
2026-05-07 16:44 -0.97470 102.97151 28714 ft 496 kts 315°
2026-05-07 16:44 -0.95033 102.94675 28831 ft 496 kts 315°
2026-05-07 16:45 -0.92599 102.92203 28939 ft 497 kts 315°
2026-05-07 16:45 -0.89335 102.88885 29176 ft 495 kts 315°
2026-05-07 16:45 -0.87698 102.87220 29231 ft 496 kts 315°
2026-05-07 16:45 -0.85260 102.84744 29352 ft 497 kts 315°
2026-05-07 16:46 -0.82812 102.82256 29520 ft 496 kts 315°
2026-05-07 16:46 -0.80375 102.79782 29761 ft 494 kts 315°
2026-05-07 16:46 -0.77943 102.77310 29924 ft 494 kts 315°
2026-05-07 16:47 -0.73085 102.72373 30214 ft 494 kts 315°
2026-05-07 16:47 -0.70660 102.69909 30463 ft 492 kts 315°
2026-05-07 16:47 -0.68240 102.67451 30615 ft 491 kts 315°
2026-05-07 16:48 -0.63384 102.62517 30889 ft 492 kts 315°
2026-05-07 16:48 -0.60969 102.60064 31112 ft 490 kts 315°
2026-05-07 16:48 -0.57767 102.56810 31368 ft 489 kts 315°
2026-05-07 16:49 -0.53746 102.52726 31619 ft 488 kts 315°
2026-05-07 16:49 -0.51348 102.50289 31823 ft 487 kts 315°
2026-05-07 16:49 -0.48963 102.47866 31965 ft 487 kts 315°
2026-05-07 16:49 -0.46559 102.45424 32103 ft 487 kts 315°
2026-05-07 16:50 -0.44159 102.42985 32226 ft 488 kts 315°
2026-05-07 16:50 -0.41765 102.40554 32377 ft 488 kts 315°
2026-05-07 16:50 -0.38567 102.37305 32602 ft 487 kts 315°
2026-05-07 16:50 -0.36178 102.34877 32815 ft 486 kts 315°
2026-05-07 16:51 -0.34588 102.33247 32965 ft 485 kts 313°
2026-05-07 16:51 -0.31639 102.29826 33215 ft 484 kts 311°
2026-05-07 16:51 -0.30157 102.28110 33353 ft 483 kts 311°
2026-05-07 16:51 -0.27219 102.24713 33651 ft 481 kts 311°
2026-05-07 16:52 -0.25755 102.23023 33820 ft 480 kts 311°
2026-05-07 16:52 -0.23558 102.20487 33997 ft 479 kts 311°
2026-05-07 16:52 -0.21363 102.17952 34223 ft 478 kts 311°
2026-05-07 16:52 -0.18450 102.14591 34474 ft 477 kts 311°
2026-05-07 16:53 -0.16267 102.12072 34639 ft 477 kts 311°
2026-05-07 16:53 -0.14814 102.10394 34769 ft 476 kts 311°
2026-05-07 16:53 -0.12642 102.07887 34949 ft 475 kts 311°
2026-05-07 16:53 -0.10478 102.05390 35162 ft 473 kts 311°
2026-05-07 16:54 -0.07582 102.02048 35316 ft 474 kts 311°
2026-05-07 16:54 -0.06137 102.00379 35437 ft 473 kts 311°
2026-05-07 16:54 -0.03977 101.97887 35622 ft 473 kts 311°
2026-05-07 16:54 -0.01816 101.95393 35804 ft 472 kts 311°
2026-05-07 16:55 0.00343 101.92900 35872 ft 474 kts 311°
2026-05-07 16:55 0.04703 101.87868 35882 ft 478 kts 311°
2026-05-07 16:56 0.09085 101.82811 35853 ft 482 kts 311°
2026-05-07 16:56 0.15685 101.75193 35834 ft 486 kts 311°
2026-05-07 16:57 0.20116 101.70078 35848 ft 487 kts 311°
2026-05-07 16:57 0.25308 101.64086 35866 ft 485 kts 311°
2026-05-07 16:58 0.28996 101.59829 35850 ft 482 kts 311°
2026-05-07 16:58 0.33392 101.54755 35878 ft 483 kts 311°
2026-05-07 16:59 0.38543 101.48811 35873 ft 483 kts 311°
2026-05-07 16:59 0.42127 101.44517 35839 ft 484 kts 304°
2026-05-07 17:00 0.43727 101.41570 35885 ft 485 kts 293°
2026-05-07 17:00 0.45036 101.38470 35886 ft 486 kts 294°
2026-05-07 17:00 0.47710 101.32274 35867 ft 485 kts 294°
2026-05-07 17:01 0.50393 101.26071 35846 ft 485 kts 294°
2026-05-07 17:01 0.53076 101.19872 35864 ft 486 kts 294°
2026-05-07 17:02 0.55757 101.13674 35859 ft 486 kts 294°
2026-05-07 17:02 0.58450 101.07450 35831 ft 486 kts 294°
2026-05-07 17:03 0.61129 101.01258 35859 ft 485 kts 294°
2026-05-07 17:03 0.63805 100.95070 35860 ft 484 kts 294°
2026-05-07 17:04 0.66487 100.88871 35861 ft 486 kts 294°
2026-05-07 17:04 0.69174 100.82661 35857 ft 486 kts 294°
2026-05-07 17:05 0.71860 100.76451 35886 ft 485 kts 294°
2026-05-07 17:05 0.74541 100.70252 35859 ft 486 kts 294°
2026-05-07 17:06 0.77228 100.64042 35862 ft 487 kts 294°
2026-05-07 17:06 0.79918 100.57820 35885 ft 485 kts 294°
2026-05-07 17:07 0.82611 100.51595 35858 ft 486 kts 294°
2026-05-07 17:07 0.85304 100.45369 35852 ft 486 kts 294°
2026-05-07 17:08 0.88002 100.39131 35869 ft 487 kts 294°
2026-05-07 17:08 0.90695 100.32901 35877 ft 487 kts 294°
2026-05-07 17:09 0.93838 100.25632 35865 ft 486 kts 294°
2026-05-07 17:09 0.96073 100.20464 35892 ft 486 kts 294°
2026-05-07 17:10 0.98762 100.14244 35877 ft 486 kts 294°
2026-05-07 17:10 1.01455 100.08015 35863 ft 487 kts 294°
2026-05-07 17:11 1.04146 100.01789 35887 ft 487 kts 294°
2026-05-07 17:11 1.06847 99.95543 35874 ft 487 kts 294°
2026-05-07 17:12 1.09538 99.89315 35862 ft 487 kts 294°
2026-05-07 17:12 1.12672 99.82064 35898 ft 486 kts 294°
2026-05-07 17:13 1.14923 99.76862 35890 ft 487 kts 294°
2026-05-07 17:13 1.17616 99.70637 35887 ft 487 kts 294°
2026-05-07 17:14 1.20309 99.64413 35934 ft 488 kts 294°
2026-05-07 17:14 1.23012 99.58165 35941 ft 488 kts 294°
2026-05-07 17:15 1.25700 99.51948 35977 ft 487 kts 294°
2026-05-07 17:15 1.28406 99.45696 36010 ft 487 kts 294°
2026-05-07 17:16 1.31107 99.39446 35977 ft 486 kts 294°
2026-05-07 17:16 1.33793 99.33239 35967 ft 487 kts 294°
2026-05-07 17:17 1.36483 99.27016 36010 ft 488 kts 294°
2026-05-07 17:17 1.39178 99.20786 36026 ft 489 kts 293°
2026-05-07 17:18 1.41872 99.14555 35974 ft 488 kts 293°
2026-05-07 17:18 1.44569 99.08315 35972 ft 488 kts 294°
2026-05-07 17:19 1.47265 99.02080 35940 ft 488 kts 293°
2026-05-07 17:19 1.49965 98.95832 35960 ft 488 kts 293°
2026-05-07 17:20 1.52665 98.89586 35917 ft 488 kts 293°
2026-05-07 17:20 1.55361 98.83348 35920 ft 489 kts 293°
2026-05-07 17:21 1.58064 98.77093 35936 ft 488 kts 293°
2026-05-07 17:21 1.60759 98.70855 35928 ft 488 kts 294°
2026-05-07 17:22 1.63454 98.64618 35916 ft 489 kts 293°
2026-05-07 17:22 1.66151 98.58376 35907 ft 489 kts 293°
2026-05-07 17:23 1.68836 98.52157 35937 ft 487 kts 294°
2026-05-07 17:23 1.71519 98.45947 35894 ft 488 kts 293°
2026-05-07 17:24 1.74213 98.39707 35903 ft 487 kts 293°
2026-05-07 17:24 1.76900 98.33488 35919 ft 487 kts 293°
2026-05-07 17:25 1.79587 98.27262 35901 ft 486 kts 293°
2026-05-07 17:25 1.82265 98.21061 35867 ft 488 kts 293°
2026-05-07 17:26 1.84950 98.14841 35928 ft 487 kts 293°
2026-05-07 17:26 1.87657 98.08587 35865 ft 487 kts 293°
2026-05-07 17:27 1.90335 98.02393 35891 ft 485 kts 294°
2026-05-07 17:27 1.93461 97.95168 35903 ft 486 kts 294°
2026-05-07 17:28 1.95694 97.90002 35899 ft 488 kts 294°
2026-05-07 17:28 1.98391 97.83764 35849 ft 490 kts 294°
2026-05-07 17:29 2.01089 97.77525 35859 ft 490 kts 293°
2026-05-07 17:29 2.03785 97.71288 35871 ft 487 kts 293°
2026-05-07 17:30 2.06477 97.65062 35870 ft 488 kts 293°
2026-05-07 17:30 2.09163 97.58845 35873 ft 488 kts 293°
2026-05-07 17:31 2.11857 97.52610 35857 ft 489 kts 293°
2026-05-07 17:31 2.14544 97.46393 35891 ft 488 kts 293°
2026-05-07 17:32 2.17225 97.40186 35879 ft 489 kts 293°
2026-05-07 17:32 2.19915 97.33962 35850 ft 490 kts 293°
2026-05-07 17:33 2.22600 97.27741 35879 ft 490 kts 293°
2026-05-07 17:33 2.25730 97.20493 35872 ft 490 kts 293°
2026-05-07 17:34 2.27979 97.15288 35866 ft 491 kts 293°
2026-05-07 17:34 2.30677 97.09034 35832 ft 489 kts 295°
2026-05-07 17:35 2.32467 97.04894 35933 ft 486 kts 294°
2026-05-07 17:35 2.33812 97.01774 35858 ft 490 kts 293°
2026-05-07 17:35 2.36516 96.95512 35895 ft 491 kts 293°
2026-05-07 17:36 2.38780 96.90265 35877 ft 494 kts 293°
2026-05-07 17:36 2.41496 96.83966 35881 ft 492 kts 293°
2026-05-07 17:37 2.44201 96.77700 35879 ft 491 kts 293°
2026-05-07 17:37 2.46915 96.71408 35875 ft 492 kts 293°
2026-05-07 17:38 2.49626 96.65120 35883 ft 492 kts 293°
2026-05-07 17:38 2.52788 96.57789 35880 ft 491 kts 293°
2026-05-07 17:39 2.55050 96.52543 35877 ft 492 kts 293°
2026-05-07 17:39 2.58181 96.45239 35869 ft 492 kts 293°
2026-05-07 17:40 2.60424 96.39996 35879 ft 493 kts 293°
2026-05-07 17:40 2.63114 96.33705 35891 ft 493 kts 293°
2026-05-07 17:41 2.65821 96.27371 35866 ft 493 kts 293°
2026-05-07 17:41 2.68516 96.21064 35878 ft 494 kts 293°
2026-05-07 17:42 2.71223 96.14732 35875 ft 493 kts 293°
2026-05-07 17:42 2.73920 96.08421 35861 ft 493 kts 293°
2026-05-07 17:43 2.76631 96.02076 35890 ft 495 kts 293°
2026-05-07 17:43 2.79337 95.95739 35885 ft 494 kts 293°
2026-05-07 17:44 2.82029 95.89435 35855 ft 494 kts 293°
2026-05-07 17:44 2.84711 95.83154 35884 ft 494 kts 293°
2026-05-07 17:45 2.87406 95.76842 35879 ft 494 kts 293°
2026-05-07 17:45 2.90100 95.70529 35854 ft 495 kts 293°
2026-05-07 17:46 2.92802 95.64198 35869 ft 495 kts 293°
2026-05-07 17:46 2.95520 95.57829 35878 ft 495 kts 293°
2026-05-07 17:47 2.98238 95.51460 35840 ft 495 kts 293°
2026-05-07 17:47 3.00940 95.45122 35845 ft 496 kts 293°
2026-05-07 17:48 3.03649 95.38769 35864 ft 495 kts 293°
2026-05-07 17:48 3.06360 95.32413 35833 ft 495 kts 293°
2026-05-07 17:49 3.09072 95.26050 35851 ft 495 kts 293°
2026-05-07 17:49 3.11767 95.19726 35853 ft 495 kts 293°
2026-05-07 17:50 3.14462 95.13404 35836 ft 495 kts 293°
2026-05-07 17:50 3.17172 95.07041 35852 ft 495 kts 293°
2026-05-07 17:51 3.19877 95.00691 35859 ft 496 kts 293°
2026-05-07 17:51 3.23041 94.93262 35847 ft 496 kts 293°
2026-05-07 17:52 3.25295 94.87967 35838 ft 496 kts 293°
2026-05-07 17:52 3.27517 94.81442 35884 ft 494 kts 284°
2026-05-07 17:53 3.29271 94.74731 35847 ft 496 kts 285°
2026-05-07 17:53 3.31020 94.68054 35857 ft 496 kts 285°
2026-05-07 17:54 3.32778 94.61345 35882 ft 496 kts 285°
2026-05-07 17:54 3.34535 94.54633 35855 ft 498 kts 285°
2026-05-07 17:55 3.36288 94.47937 35870 ft 496 kts 284°
2026-05-07 17:55 3.38039 94.41249 35883 ft 496 kts 284°
2026-05-07 17:56 3.39798 94.34523 35857 ft 496 kts 285°
2026-05-07 17:56 3.41554 94.27811 35861 ft 496 kts 284°
2026-05-07 17:57 3.43316 94.21072 35874 ft 498 kts 284°
2026-05-07 17:57 3.45083 94.14317 35851 ft 499 kts 284°
2026-05-07 17:58 3.46848 94.07565 35861 ft 499 kts 284°
2026-05-07 17:58 3.48608 94.00820 35874 ft 497 kts 284°
2026-05-07 17:59 3.50365 93.94091 35866 ft 497 kts 285°
2026-05-07 17:59 3.52118 93.87382 35853 ft 498 kts 285°
2026-05-07 18:00 3.53878 93.80641 35875 ft 498 kts 285°
2026-05-07 18:00 3.55635 93.73902 35860 ft 498 kts 285°
2026-05-07 18:01 3.57391 93.67176 35851 ft 499 kts 284°
2026-05-07 18:01 3.59136 93.60479 35870 ft 497 kts 284°
2026-05-07 18:02 3.61766 93.50388 35862 ft 498 kts 285°
2026-05-07 18:03 3.63524 93.43643 35855 ft 498 kts 284°
2026-05-07 18:03 3.65278 93.36909 35854 ft 498 kts 284°
2026-05-07 18:04 3.67029 93.30183 35875 ft 497 kts 284°
2026-05-07 18:04 3.68782 93.23448 35856 ft 498 kts 284°
2026-05-07 18:05 3.70535 93.16712 35853 ft 499 kts 284°
2026-05-07 18:05 3.72281 93.09999 35875 ft 497 kts 284°
2026-05-07 18:06 3.74039 93.03237 35855 ft 498 kts 284°
2026-05-07 18:06 3.75789 92.96506 35859 ft 497 kts 284°
2026-05-07 18:07 3.77540 92.89767 35877 ft 498 kts 284°
2026-05-07 18:07 3.79288 92.83040 35849 ft 497 kts 284°
2026-05-07 18:08 3.81042 92.76283 35849 ft 500 kts 284°
2026-05-07 18:08 3.82796 92.69527 35852 ft 499 kts 285°
2026-05-07 18:09 3.84553 92.62760 35836 ft 499 kts 284°
2026-05-07 18:09 3.86293 92.56044 35843 ft 495 kts 285°
2026-05-07 18:10 3.88017 92.49403 35941 ft 494 kts 284°
2026-05-07 18:10 3.88887 92.46046 35737 ft 500 kts 284°
2026-05-07 18:10 3.89765 92.42661 35917 ft 499 kts 284°
2026-05-07 18:10 3.90640 92.39283 35814 ft 503 kts 284°
2026-05-07 18:11 3.91520 92.35888 35844 ft 500 kts 285°
2026-05-07 18:11 3.93267 92.29143 35822 ft 499 kts 285°
2026-05-07 18:12 3.95007 92.22424 35849 ft 496 kts 284°
2026-05-07 18:12 3.96740 92.15728 35843 ft 496 kts 284°
2026-05-07 18:13 3.98478 92.09016 35843 ft 498 kts 284°
2026-05-07 18:13 4.00222 92.02276 35843 ft 499 kts 284°
2026-05-07 18:14 4.01929 91.95562 35838 ft 498 kts 284°
2026-05-07 18:14 4.03622 91.88837 35840 ft 498 kts 284°
2026-05-07 18:15 4.05319 91.82103 35842 ft 497 kts 284°
2026-05-07 18:15 4.07016 91.75361 35843 ft 496 kts 284°
2026-05-07 18:16 4.08710 91.68634 35845 ft 497 kts 284°
2026-05-07 18:16 4.10406 91.61894 35843 ft 498 kts 284°
2026-05-07 18:17 4.12100 91.55155 35845 ft 498 kts 284°
2026-05-07 18:17 4.13793 91.48423 35844 ft 497 kts 284°
2026-05-07 18:18 4.15480 91.41711 35843 ft 496 kts 284°
2026-05-07 18:18 4.17169 91.34988 35840 ft 497 kts 284°
2026-05-07 18:19 4.18857 91.28264 35828 ft 497 kts 284°
2026-05-07 18:19 4.20543 91.21549 35814 ft 497 kts 284°
2026-05-07 18:20 4.22225 91.14848 35819 ft 497 kts 284°
2026-05-07 18:20 4.23904 91.08151 35842 ft 496 kts 284°
2026-05-07 18:21 4.25593 91.01417 35832 ft 497 kts 284°
2026-05-07 18:21 4.27277 90.94695 35834 ft 498 kts 284°
2026-05-07 18:22 4.28966 90.87956 35856 ft 497 kts 284°
2026-05-07 18:22 4.30659 90.81198 35837 ft 498 kts 284°
2026-05-07 18:23 4.32353 90.74432 35835 ft 497 kts 284°
2026-05-07 18:23 4.34042 90.67683 35858 ft 497 kts 284°
2026-05-07 18:24 4.35733 90.60922 35833 ft 499 kts 284°
2026-05-07 18:24 4.37423 90.54160 35843 ft 498 kts 284°
2026-05-07 18:25 4.39108 90.47421 35856 ft 498 kts 284°
2026-05-07 18:25 4.40791 90.40686 35831 ft 498 kts 284°
2026-05-07 18:26 4.42651 90.33956 35858 ft 499 kts 285°
2026-05-07 18:26 4.44529 90.27266 35847 ft 497 kts 285°
2026-05-07 18:27 4.46402 90.20588 35840 ft 499 kts 285°
2026-05-07 18:27 4.48280 90.13886 35838 ft 499 kts 285°
2026-05-07 18:28 4.50156 90.07190 35843 ft 499 kts 285°
2026-05-07 18:28 4.52031 90.00496 35842 ft 498 kts 285°
2026-05-07 18:29 4.53906 89.93799 35840 ft 497 kts 285°
2026-05-07 18:29 4.55778 89.87104 35840 ft 498 kts 285°
2026-05-07 18:30 4.57655 89.80398 35839 ft 499 kts 285°
2026-05-07 18:30 4.59530 89.73693 35820 ft 498 kts 285°
2026-05-07 18:31 4.61404 89.66988 35811 ft 497 kts 285°
2026-05-07 18:31 4.63279 89.60279 35839 ft 498 kts 285°
2026-05-07 18:32 4.65149 89.53581 35820 ft 497 kts 285°
2026-05-07 18:32 4.67016 89.46896 35826 ft 498 kts 285°
2026-05-07 18:33 4.68887 89.40191 35835 ft 498 kts 285°
2026-05-07 18:33 4.70758 89.33482 35811 ft 498 kts 285°
2026-05-07 18:34 4.72632 89.26768 35834 ft 497 kts 285°
2026-05-07 18:34 4.74502 89.20055 35820 ft 497 kts 285°
2026-05-07 18:35 4.76360 89.13386 35811 ft 498 kts 285°
2026-05-07 18:35 4.78216 89.06723 35841 ft 498 kts 285°
2026-05-07 18:36 4.80081 89.00025 35825 ft 497 kts 285°
2026-05-07 18:36 4.81946 88.93323 35819 ft 498 kts 285°
2026-05-07 18:37 4.83813 88.86612 35854 ft 497 kts 285°
2026-05-07 18:37 4.85684 88.79882 35834 ft 498 kts 285°
2026-05-07 18:38 4.87553 88.73157 35831 ft 499 kts 285°
2026-05-07 18:38 4.89419 88.66442 35853 ft 498 kts 285°
2026-05-07 18:39 4.91285 88.59725 35829 ft 497 kts 285°
2026-05-07 18:39 4.93145 88.53023 35849 ft 498 kts 285°
2026-05-07 18:40 4.95014 88.46291 35855 ft 498 kts 285°
2026-05-07 18:40 4.96875 88.39581 35833 ft 499 kts 285°
2026-05-07 18:41 4.98738 88.32863 35820 ft 499 kts 285°
2026-05-07 18:41 5.00601 88.26136 35841 ft 499 kts 285°
2026-05-07 18:42 5.02460 88.19428 35818 ft 498 kts 285°
2026-05-07 18:42 5.04315 88.12729 35807 ft 499 kts 285°
2026-05-07 18:43 5.06172 88.06019 35837 ft 498 kts 285°
2026-05-07 18:43 5.08018 87.99330 35821 ft 499 kts 284°
2026-05-07 18:44 5.09795 87.92591 35815 ft 501 kts 284°
2026-05-07 18:44 5.11582 87.85818 35837 ft 499 kts 284°
2026-05-07 18:45 5.13362 87.79071 35811 ft 499 kts 284°
2026-05-07 18:45 5.15141 87.72325 35818 ft 499 kts 284°
2026-05-07 18:46 5.16921 87.65571 35832 ft 499 kts 284°
2026-05-07 18:46 5.18700 87.58821 35816 ft 500 kts 284°
2026-05-07 18:47 5.20480 87.52062 35826 ft 499 kts 284°
2026-05-07 18:47 5.22266 87.45279 35845 ft 498 kts 284°
2026-05-07 18:48 5.24047 87.38510 35822 ft 498 kts 284°
2026-05-07 18:48 5.25822 87.31760 35808 ft 499 kts 284°
2026-05-07 18:49 5.27602 87.24992 35840 ft 498 kts 284°
2026-05-07 18:49 5.29378 87.18232 35823 ft 498 kts 284°
2026-05-07 18:50 5.31157 87.11457 35808 ft 499 kts 284°
2026-05-07 18:50 5.32926 87.04716 35834 ft 498 kts 284°
2026-05-07 18:51 5.34698 86.97966 35827 ft 498 kts 284°
2026-05-07 18:51 5.36462 86.91236 35796 ft 497 kts 284°
2026-05-07 18:52 5.38218 86.84538 35826 ft 498 kts 284°
2026-05-07 18:52 5.39986 86.77790 35827 ft 498 kts 284°
2026-05-07 18:53 5.41757 86.71028 35800 ft 499 kts 284°
2026-05-07 18:53 5.43525 86.64277 35822 ft 499 kts 284°
2026-05-07 18:54 5.45290 86.57527 35829 ft 498 kts 284°
2026-05-07 18:54 5.47054 86.50783 35813 ft 498 kts 284°
2026-05-07 18:55 5.48813 86.44053 35833 ft 497 kts 284°
2026-05-07 18:55 5.50580 86.37291 35826 ft 499 kts 284°
2026-05-07 18:56 5.52343 86.30539 35797 ft 499 kts 284°
2026-05-07 18:56 5.54102 86.23797 35829 ft 498 kts 284°
2026-05-07 18:57 5.55867 86.17031 35822 ft 498 kts 284°
2026-05-07 18:57 5.57615 86.10327 35810 ft 499 kts 284°
2026-05-07 18:58 5.59366 86.03609 35838 ft 498 kts 284°
2026-05-07 18:58 5.61122 85.96869 35818 ft 499 kts 284°
2026-05-07 18:59 5.62876 85.90130 35811 ft 498 kts 284°
2026-05-07 18:59 5.64635 85.83370 35838 ft 498 kts 284°
2026-05-07 19:00 5.66394 85.76608 35818 ft 499 kts 284°
2026-05-07 19:00 5.68149 85.69854 35817 ft 499 kts 284°
2026-05-07 19:01 5.69903 85.63107 35839 ft 498 kts 284°
2026-05-07 19:01 5.71656 85.56356 35817 ft 499 kts 284°
2026-05-07 19:02 5.73413 85.49586 35819 ft 500 kts 284°
2026-05-07 19:02 5.75166 85.42829 35840 ft 498 kts 284°
2026-05-07 19:03 5.76909 85.36104 35814 ft 499 kts 284°
2026-05-07 19:03 5.78657 85.29363 35813 ft 499 kts 284°
2026-05-07 19:04 5.80393 85.22662 35819 ft 499 kts 284°
2026-05-07 19:04 5.82136 85.15927 35793 ft 500 kts 284°
2026-05-07 19:05 5.83884 85.09171 35815 ft 499 kts 284°
2026-05-07 19:05 5.85635 85.02399 35814 ft 499 kts 284°
2026-05-07 19:06 5.87382 84.95641 35810 ft 499 kts 284°
2026-05-07 19:06 5.90004 84.85489 35807 ft 499 kts 284°
2026-05-07 19:07 5.91745 84.78747 35835 ft 500 kts 284°
2026-05-07 19:07 5.93494 84.71969 35823 ft 500 kts 284°
2026-05-07 19:08 5.95234 84.65218 35811 ft 501 kts 284°
2026-05-07 19:08 5.96975 84.58462 35846 ft 500 kts 284°
2026-05-07 19:09 5.98715 84.51711 35824 ft 499 kts 284°
2026-05-07 19:09 6.00456 84.44946 35820 ft 499 kts 284°
2026-05-07 19:10 6.02201 84.38169 35837 ft 500 kts 284°
2026-05-07 19:10 6.03949 84.31368 35814 ft 499 kts 284°
2026-05-07 19:11 6.05694 84.24581 35818 ft 501 kts 284°
2026-05-07 19:11 6.07438 84.17792 35826 ft 500 kts 284°
2026-05-07 19:12 6.09180 84.11010 35828 ft 500 kts 284°
2026-05-07 19:12 6.10921 84.04222 35824 ft 500 kts 284°
2026-05-07 19:13 6.12661 83.97436 35820 ft 499 kts 284°
2026-05-07 19:13 6.14392 83.90678 35819 ft 500 kts 284°
2026-05-07 19:14 6.16130 83.83889 35824 ft 500 kts 284°
2026-05-07 19:14 6.17871 83.77088 35833 ft 500 kts 284°
2026-05-07 19:15 6.19607 83.70300 35811 ft 499 kts 284°
2026-05-07 19:15 6.21339 83.63524 35795 ft 501 kts 284°
2026-05-07 19:16 6.23074 83.56733 35814 ft 502 kts 284°
2026-05-07 19:16 6.24805 83.49956 35805 ft 499 kts 284°
2026-05-07 19:17 6.26534 83.43179 35790 ft 499 kts 284°
2026-05-07 19:17 6.28260 83.36410 35828 ft 499 kts 284°
2026-05-07 19:18 6.29972 83.29693 35799 ft 499 kts 284°
2026-05-07 19:18 6.31700 83.22911 35810 ft 501 kts 284°
2026-05-07 19:19 6.33423 83.16145 35824 ft 499 kts 284°
2026-05-07 19:19 6.35148 83.09366 35819 ft 499 kts 284°
2026-05-07 19:20 6.36869 83.02597 35798 ft 499 kts 284°
2026-05-07 19:20 6.38590 82.95828 35833 ft 500 kts 284°
2026-05-07 19:21 6.40316 82.89031 35825 ft 500 kts 284°
2026-05-07 19:21 6.42036 82.82254 35809 ft 500 kts 284°
2026-05-07 19:22 6.43754 82.75488 35837 ft 499 kts 284°
2026-05-07 19:22 6.45460 82.68757 35821 ft 497 kts 284°
2026-05-07 19:23 6.47171 82.62003 35814 ft 498 kts 284°
2026-05-07 19:23 6.48882 82.55250 35838 ft 498 kts 284°
2026-05-07 19:24 6.50596 82.48476 35818 ft 499 kts 284°
2026-05-07 19:24 6.52302 82.41734 35814 ft 499 kts 284°
2026-05-07 19:25 6.54008 82.34989 35836 ft 498 kts 284°
2026-05-07 19:25 6.55702 82.28280 35804 ft 497 kts 284°
2026-05-07 19:26 6.57402 82.21553 35801 ft 499 kts 284°
2026-05-07 19:26 6.59091 82.14862 35804 ft 498 kts 284°
2026-05-07 19:27 6.60783 82.08152 35804 ft 496 kts 284°
2026-05-07 19:27 6.62465 82.01475 35806 ft 496 kts 284°
2026-05-07 19:28 6.64156 81.94783 35795 ft 495 kts 284°
2026-05-07 19:28 6.65854 81.88059 35816 ft 496 kts 284°
2026-05-07 19:29 6.67543 81.81372 35816 ft 494 kts 284°
2026-05-07 19:29 6.69224 81.74705 35809 ft 494 kts 284°
2026-05-07 19:30 6.70917 81.67994 35819 ft 495 kts 284°
2026-05-07 19:30 6.72600 81.61312 35844 ft 494 kts 284°
2026-05-07 19:31 6.74280 81.54645 35829 ft 494 kts 284°
2026-05-07 19:31 6.75961 81.47963 35849 ft 494 kts 284°
2026-05-07 19:32 6.77642 81.41282 35880 ft 492 kts 284°
2026-05-07 19:32 6.79311 81.34646 35866 ft 492 kts 284°
2026-05-07 19:33 6.80975 81.28023 35872 ft 493 kts 284°
2026-05-07 19:33 6.82642 81.21376 35912 ft 491 kts 285°
2026-05-07 19:34 6.84303 81.14761 35926 ft 490 kts 285°
2026-05-07 19:34 6.85957 81.08169 35934 ft 493 kts 284°
2026-05-07 19:35 6.87622 81.01520 36000 ft 491 kts 285°
2026-05-07 19:35 6.89284 80.94874 36003 ft 490 kts 285°
2026-05-07 19:36 6.90935 80.88262 36014 ft 490 kts 284°
2026-05-07 19:36 6.92590 80.81630 36059 ft 492 kts 284°
2026-05-07 19:37 6.94243 80.75003 36138 ft 490 kts 284°
2026-05-07 19:37 6.95898 80.68364 36115 ft 492 kts 284°
2026-05-07 19:38 6.97555 80.61714 36045 ft 491 kts 285°
2026-05-07 19:38 6.99220 80.55021 36033 ft 492 kts 284°
2026-05-07 19:39 7.00888 80.48323 35947 ft 492 kts 285°
2026-05-07 19:39 7.02550 80.41636 35944 ft 494 kts 285°
2026-05-07 19:40 7.04222 80.34905 35963 ft 488 kts 285°
2026-05-07 19:40 7.05891 80.28184 35899 ft 492 kts 284°
2026-05-07 19:41 7.07562 80.21447 35849 ft 493 kts 284°
2026-05-07 19:41 7.09220 80.14762 35840 ft 493 kts 284°
2026-05-07 19:42 7.10852 80.08177 35833 ft 494 kts 284°
2026-05-07 19:42 7.12498 80.01527 35844 ft 493 kts 284°
2026-05-07 19:43 7.14142 79.94888 35819 ft 493 kts 284°
2026-05-07 19:43 7.15789 79.88241 35845 ft 491 kts 285°
2026-05-07 19:44 7.16956 79.85034 35785 ft 490 kts 296°
2026-05-07 19:44 7.18445 79.81962 35891 ft 489 kts 296°
2026-05-07 19:44 7.19919 79.78859 35788 ft 492 kts 297°
2026-05-07 19:44 7.21397 79.75750 35910 ft 488 kts 296°
2026-05-07 19:45 7.22852 79.72677 35736 ft 493 kts 296°
2026-05-07 19:45 7.24325 79.69574 36026 ft 485 kts 296°
2026-05-07 19:45 7.25779 79.66504 35559 ft 496 kts 296°
2026-05-07 19:45 7.27248 79.63401 35938 ft 485 kts 296°
2026-05-07 19:46 7.28688 79.60361 35815 ft 490 kts 296°
2026-05-07 19:46 7.30157 79.57261 35858 ft 485 kts 295°
2026-05-07 19:46 7.31605 79.54196 35754 ft 492 kts 296°
2026-05-07 19:46 7.33079 79.51089 35733 ft 488 kts 296°
2026-05-07 19:47 7.34526 79.48027 35992 ft 489 kts 296°
2026-05-07 19:47 7.36010 79.44893 35582 ft 498 kts 296°
2026-05-07 19:47 7.37484 79.41775 36032 ft 492 kts 296°
2026-05-07 19:47 7.38962 79.38650 35660 ft 501 kts 296°
2026-05-07 19:48 7.40430 79.35545 35887 ft 494 kts 296°
2026-05-07 19:48 7.41918 79.32397 35806 ft 499 kts 296°
2026-05-07 19:48 7.44887 79.26114 35860 ft 493 kts 296°
2026-05-07 19:49 7.47838 79.19869 35847 ft 494 kts 296°
2026-05-07 19:49 7.50785 79.13625 35810 ft 493 kts 296°
2026-05-07 19:50 7.53563 79.07305 35802 ft 495 kts 294°
2026-05-07 19:50 7.56299 79.00949 35831 ft 495 kts 294°
2026-05-07 19:51 7.59042 78.94581 35803 ft 497 kts 294°
2026-05-07 19:51 7.61797 78.88182 35792 ft 496 kts 294°
2026-05-07 19:52 7.64531 78.81830 35811 ft 495 kts 294°
2026-05-07 19:52 7.67267 78.75468 35797 ft 496 kts 294°
2026-05-07 19:53 7.70003 78.69105 35799 ft 495 kts 294°
2026-05-07 19:53 7.72739 78.62737 35814 ft 495 kts 294°
2026-05-07 19:54 7.75456 78.56415 35792 ft 497 kts 294°
2026-05-07 19:54 7.78177 78.50077 35799 ft 496 kts 294°
2026-05-07 19:55 7.80896 78.43738 35815 ft 495 kts 294°
2026-05-07 19:55 7.83610 78.37412 35790 ft 496 kts 294°
2026-05-07 19:56 7.86339 78.31047 35797 ft 496 kts 294°
2026-05-07 19:56 7.89067 78.24680 35811 ft 496 kts 294°
2026-05-07 19:57 7.91785 78.18335 35789 ft 495 kts 294°
2026-05-07 19:57 7.94560 78.11985 35801 ft 495 kts 295°
2026-05-07 19:58 7.97371 78.05665 35814 ft 494 kts 295°
2026-05-07 19:58 8.00174 77.99357 35782 ft 494 kts 295°
2026-05-07 19:59 8.02982 77.93034 35787 ft 496 kts 295°
2026-05-07 19:59 8.05798 77.86694 35820 ft 496 kts 295°
2026-05-07 20:00 8.08598 77.80384 35797 ft 494 kts 295°
2026-05-07 20:00 8.11379 77.74114 35788 ft 493 kts 295°
2026-05-07 20:01 8.14170 77.67818 35787 ft 494 kts 295°
2026-05-07 20:01 8.16951 77.61540 35795 ft 494 kts 295°
2026-05-07 20:02 8.19742 77.55238 35795 ft 493 kts 295°
2026-05-07 20:02 8.22530 77.48941 35796 ft 494 kts 295°
2026-05-07 20:03 8.25318 77.42640 35799 ft 493 kts 295°
2026-05-07 20:03 8.28111 77.36323 35818 ft 494 kts 295°
2026-05-07 20:04 8.30898 77.30018 35830 ft 492 kts 295°
2026-05-07 20:04 8.33673 77.23738 35839 ft 492 kts 295°
2026-05-07 20:05 8.36435 77.17482 35827 ft 493 kts 295°
2026-05-07 20:05 8.39208 77.11200 35824 ft 492 kts 295°
2026-05-07 20:06 8.41963 77.04954 35836 ft 492 kts 295°
2026-05-07 20:06 8.44706 76.98738 35832 ft 492 kts 295°
2026-05-07 20:07 8.47036 76.92282 35819 ft 493 kts 280°
2026-05-07 20:07 8.47304 76.88845 35871 ft 495 kts 268°
2026-05-07 20:07 8.47069 76.85374 35837 ft 497 kts 266°
2026-05-07 20:08 8.46637 76.78442 35837 ft 495 kts 266°
2026-05-07 20:08 8.46220 76.71516 35822 ft 495 kts 266°
2026-05-07 20:09 8.45805 76.64621 35833 ft 496 kts 266°
2026-05-07 20:10 8.45178 76.54227 35812 ft 495 kts 266°
2026-05-07 20:10 8.44760 76.47311 35814 ft 494 kts 266°
2026-05-07 20:11 8.44339 76.40385 35793 ft 495 kts 266°
2026-05-07 20:11 8.43919 76.33473 35812 ft 495 kts 266°
2026-05-07 20:12 8.43496 76.26549 35808 ft 495 kts 266°
2026-05-07 20:12 8.43072 76.19641 35789 ft 494 kts 266°
2026-05-07 20:13 8.42649 76.12734 35810 ft 494 kts 266°
2026-05-07 20:13 8.42708 76.09287 35758 ft 493 kts 277°
2026-05-07 20:13 8.43452 76.05931 35814 ft 491 kts 289°
2026-05-07 20:14 8.46154 75.99609 35796 ft 492 kts 294°
2026-05-07 20:14 8.48866 75.93265 35806 ft 491 kts 294°
2026-05-07 20:15 8.51553 75.86947 35787 ft 490 kts 294°
2026-05-07 20:15 8.54245 75.80615 35779 ft 491 kts 294°
2026-05-07 20:16 8.56927 75.74298 35807 ft 491 kts 294°
2026-05-07 20:16 8.59621 75.67951 35785 ft 490 kts 294°
2026-05-07 20:17 8.62308 75.61620 35778 ft 492 kts 294°
2026-05-07 20:17 8.64998 75.55276 35778 ft 491 kts 294°
2026-05-07 20:18 8.67691 75.48921 35793 ft 490 kts 294°
2026-05-07 20:18 8.70388 75.42557 35778 ft 492 kts 294°
2026-05-07 20:19 8.73075 75.36210 35801 ft 491 kts 294°
2026-05-07 20:19 8.75770 75.29841 35809 ft 491 kts 294°
2026-05-07 20:20 8.78457 75.23488 35783 ft 492 kts 294°
2026-05-07 20:20 8.81142 75.17135 35800 ft 493 kts 294°
2026-05-07 20:21 8.83836 75.10760 35809 ft 491 kts 294°
2026-05-07 20:21 8.86525 75.04389 35787 ft 492 kts 294°
2026-05-07 20:22 8.89209 74.98030 35793 ft 492 kts 294°
2026-05-07 20:22 8.91888 74.91679 35815 ft 491 kts 294°
2026-05-07 20:23 8.94581 74.85291 35796 ft 491 kts 294°
2026-05-07 20:23 8.97262 74.78928 35789 ft 492 kts 294°
2026-05-07 20:24 8.99944 74.72559 35815 ft 492 kts 294°
2026-05-07 20:24 9.02624 74.66189 35792 ft 491 kts 294°
2026-05-07 20:25 9.05306 74.59814 35787 ft 492 kts 294°
2026-05-07 20:25 9.07981 74.53450 35817 ft 491 kts 294°
2026-05-07 20:26 9.10654 74.47089 35792 ft 491 kts 294°
2026-05-07 20:26 9.13329 74.40718 35792 ft 491 kts 294°
2026-05-07 20:27 9.16007 74.34337 35815 ft 492 kts 293°
2026-05-07 20:27 9.18678 74.27967 35795 ft 491 kts 293°
2026-05-07 20:28 9.21348 74.21598 35767 ft 491 kts 293°
2026-05-07 20:28 9.24009 74.15246 35807 ft 491 kts 293°
2026-05-07 20:29 9.26679 74.08870 35778 ft 491 kts 293°
2026-05-07 20:29 9.29339 74.02514 35770 ft 491 kts 293°
2026-05-07 20:30 9.32002 73.96147 35792 ft 490 kts 294°
2026-05-07 20:30 9.34660 73.89788 35764 ft 490 kts 293°
2026-05-07 20:31 9.37313 73.83437 35790 ft 490 kts 293°
2026-05-07 20:31 9.39978 73.77052 35777 ft 489 kts 293°
2026-05-07 20:32 9.42642 73.70667 35775 ft 490 kts 294°
2026-05-07 20:32 9.45301 73.64292 35810 ft 489 kts 293°
2026-05-07 20:33 9.47958 73.57917 35802 ft 490 kts 293°
2026-05-07 20:33 9.50618 73.51532 35785 ft 490 kts 293°
2026-05-07 20:34 9.53275 73.45147 35813 ft 489 kts 293°
2026-05-07 20:34 9.55931 73.38763 35797 ft 489 kts 293°
2026-05-07 20:35 9.58578 73.32397 35787 ft 489 kts 293°
2026-05-07 20:35 9.61222 73.26037 35815 ft 487 kts 293°
2026-05-07 20:36 9.63861 73.19681 35792 ft 488 kts 293°
2026-05-07 20:36 9.66500 73.13323 35793 ft 488 kts 293°
2026-05-07 20:37 9.69116 73.07016 35815 ft 488 kts 293°
2026-05-07 20:37 9.71744 73.00675 35793 ft 487 kts 293°
2026-05-07 20:38 9.74361 72.94358 35800 ft 488 kts 293°
2026-05-07 20:38 9.76994 72.88001 35807 ft 487 kts 293°
2026-05-07 20:39 9.79617 72.81662 35787 ft 487 kts 293°
2026-05-07 20:39 9.82244 72.75309 35803 ft 487 kts 293°
2026-05-07 20:40 9.84872 72.68951 35814 ft 487 kts 293°
2026-05-07 20:40 9.87500 72.62587 35785 ft 486 kts 293°
2026-05-07 20:41 9.90114 72.56256 35811 ft 487 kts 293°
2026-05-07 20:41 9.92740 72.49890 35806 ft 487 kts 293°
2026-05-07 20:42 9.95359 72.43539 35786 ft 488 kts 293°
2026-05-07 20:42 9.98461 72.37444 35790 ft 484 kts 306°
2026-05-07 20:43 10.02264 72.31763 35777 ft 486 kts 304°
2026-05-07 20:43 10.06042 72.26063 35808 ft 484 kts 304°
2026-05-07 20:44 10.09802 72.20384 35788 ft 482 kts 304°
2026-05-07 20:44 10.13565 72.14697 35795 ft 483 kts 304°
2026-05-07 20:45 10.17320 72.09020 35812 ft 483 kts 304°
2026-05-07 20:45 10.21082 72.03332 35797 ft 483 kts 304°
2026-05-07 20:46 10.24837 71.97648 35823 ft 483 kts 304°
2026-05-07 20:46 10.28592 71.91964 35826 ft 483 kts 304°
2026-05-07 20:47 10.32347 71.86275 35801 ft 482 kts 304°
2026-05-07 20:47 10.36090 71.80602 35813 ft 482 kts 304°
2026-05-07 20:48 10.39808 71.74963 35811 ft 483 kts 304°
2026-05-07 20:48 10.43561 71.69271 35796 ft 485 kts 304°
2026-05-07 20:49 10.47306 71.63586 35817 ft 484 kts 304°
2026-05-07 20:49 10.51043 71.57913 35811 ft 484 kts 304°
2026-05-07 20:50 10.54781 71.52233 35800 ft 486 kts 304°
2026-05-07 20:50 10.58539 71.46519 35821 ft 486 kts 304°
2026-05-07 20:51 10.62296 71.40802 35804 ft 484 kts 304°
2026-05-07 20:51 10.66062 71.35074 35793 ft 486 kts 304°
2026-05-07 20:52 10.69815 71.29358 35814 ft 486 kts 304°
2026-05-07 20:52 10.73564 71.23647 35797 ft 487 kts 303°
2026-05-07 20:53 10.77329 71.17909 35793 ft 487 kts 303°
2026-05-07 20:53 10.81108 71.12146 35814 ft 486 kts 303°
2026-05-07 20:54 10.84875 71.06399 35793 ft 485 kts 303°
2026-05-07 20:54 10.88633 71.00659 35797 ft 488 kts 303°
2026-05-07 20:55 10.92400 70.94906 35815 ft 488 kts 303°
2026-05-07 20:55 10.96169 70.89146 35791 ft 488 kts 303°
2026-05-07 20:56 10.99918 70.83413 35800 ft 487 kts 303°
2026-05-07 20:56 11.03685 70.77650 35814 ft 487 kts 303°
2026-05-07 20:57 11.07455 70.71878 35792 ft 486 kts 303°
2026-05-07 20:57 11.11226 70.66102 35804 ft 488 kts 303°
2026-05-07 20:58 11.15002 70.60316 35807 ft 487 kts 303°
2026-05-07 20:58 11.18784 70.54518 35790 ft 489 kts 303°
2026-05-07 20:59 11.22545 70.48746 35809 ft 487 kts 303°
2026-05-07 20:59 11.26316 70.42958 35807 ft 486 kts 303°
2026-05-07 21:00 11.30069 70.37193 35789 ft 487 kts 303°
2026-05-07 21:00 11.33833 70.31409 35823 ft 487 kts 303°
2026-05-07 21:01 11.37602 70.25615 35820 ft 487 kts 303°
2026-05-07 21:01 11.41370 70.19818 35806 ft 488 kts 303°
2026-05-07 21:02 11.45142 70.14011 35835 ft 488 kts 303°
2026-05-07 21:02 11.48902 70.08221 35817 ft 487 kts 303°
2026-05-07 21:03 11.52650 70.02443 35812 ft 487 kts 303°
2026-05-07 21:03 11.56395 69.96669 35833 ft 486 kts 303°
2026-05-07 21:04 11.60144 69.90885 35814 ft 487 kts 303°
2026-05-07 21:04 11.63875 69.85100 35814 ft 486 kts 303°
2026-05-07 21:05 11.67594 69.79315 35835 ft 486 kts 303°
2026-05-07 21:05 11.71313 69.73523 35811 ft 486 kts 303°
2026-05-07 21:06 11.75022 69.67745 35820 ft 485 kts 303°
2026-05-07 21:06 11.78714 69.61989 35831 ft 485 kts 303°
2026-05-07 21:07 11.82426 69.56201 35806 ft 485 kts 303°
2026-05-07 21:07 11.86123 69.50428 35819 ft 483 kts 303°
2026-05-07 21:08 11.89812 69.44670 35818 ft 480 kts 303°
2026-05-07 21:08 11.93499 69.38909 35800 ft 483 kts 303°
2026-05-07 21:09 11.97183 69.33148 35821 ft 482 kts 303°
2026-05-07 21:09 12.00871 69.27379 35824 ft 481 kts 303°
2026-05-07 21:10 12.04546 69.21627 35809 ft 483 kts 303°
2026-05-07 21:10 12.08216 69.15878 35831 ft 479 kts 303°
2026-05-07 21:11 12.11872 69.10150 35826 ft 479 kts 303°
2026-05-07 21:11 12.17334 69.01583 35829 ft 480 kts 303°
2026-05-07 21:12 12.21022 68.95815 35799 ft 481 kts 303°
2026-05-07 21:12 12.24690 68.90082 35829 ft 481 kts 303°
2026-05-07 21:13 12.28373 68.84323 35822 ft 481 kts 303°
2026-05-07 21:13 12.32045 68.78578 35790 ft 481 kts 303°
2026-05-07 21:14 12.35723 68.72818 35817 ft 480 kts 303°
2026-05-07 21:14 12.39400 68.67058 35798 ft 480 kts 303°
2026-05-07 21:15 12.43069 68.61305 35803 ft 481 kts 303°
2026-05-07 21:15 12.46745 68.55540 35827 ft 481 kts 303°
2026-05-07 21:16 12.50418 68.49777 35810 ft 480 kts 303°
2026-05-07 21:16 12.54083 68.44022 35797 ft 481 kts 303°
2026-05-07 21:17 12.57750 68.38259 35821 ft 479 kts 303°
2026-05-07 21:17 12.61415 68.32494 35812 ft 478 kts 303°
2026-05-07 21:18 12.65054 68.26769 35810 ft 479 kts 303°
2026-05-07 21:18 12.68702 68.21026 35819 ft 480 kts 303°
2026-05-07 21:19 12.72359 68.15265 35818 ft 479 kts 303°
2026-05-07 21:19 12.75999 68.09525 35816 ft 478 kts 303°
2026-05-07 21:20 12.79649 68.03770 35821 ft 478 kts 303°
2026-05-07 21:20 12.83307 67.98034 35810 ft 478 kts 303°
2026-05-07 21:21 12.86960 67.92324 35823 ft 478 kts 303°
2026-05-07 21:21 12.90622 67.86598 35818 ft 478 kts 303°
2026-05-07 21:22 12.94266 67.80893 35815 ft 478 kts 303°
2026-05-07 21:22 12.97944 67.75133 35847 ft 480 kts 303°
2026-05-07 21:23 13.01625 67.69367 35821 ft 478 kts 303°
2026-05-07 21:23 13.05300 67.63606 35831 ft 477 kts 303°
2026-05-07 21:24 13.08972 67.57842 35835 ft 479 kts 303°
2026-05-07 21:24 13.12647 67.52073 35842 ft 480 kts 303°
2026-05-07 21:25 13.16330 67.46285 35835 ft 481 kts 303°
2026-05-07 21:25 13.20015 67.40493 35812 ft 480 kts 303°
2026-05-07 21:26 13.23688 67.34714 35863 ft 480 kts 303°
2026-05-07 21:26 13.27363 67.28930 35841 ft 481 kts 303°
2026-05-07 21:27 13.31041 67.23134 35825 ft 482 kts 303°
2026-05-07 21:27 13.34702 67.17366 35841 ft 481 kts 303°
2026-05-07 21:28 13.38361 67.11595 35818 ft 481 kts 302°
2026-05-07 21:28 13.42008 67.05839 35797 ft 482 kts 302°
2026-05-07 21:29 13.45657 67.00073 35831 ft 481 kts 302°
2026-05-07 21:29 13.49328 66.94274 35809 ft 481 kts 302°
2026-05-07 21:30 13.52995 66.88475 35813 ft 482 kts 302°
2026-05-07 21:30 13.56668 66.82660 35848 ft 481 kts 303°
2026-05-07 21:31 13.60321 66.76877 35822 ft 482 kts 302°
2026-05-07 21:31 13.63981 66.71078 35846 ft 482 kts 302°
2026-05-07 21:32 13.67638 66.65278 35834 ft 481 kts 302°
2026-05-07 21:32 13.71291 66.59481 35840 ft 481 kts 302°
2026-05-07 21:33 13.74943 66.53681 35849 ft 481 kts 302°
2026-05-07 21:33 13.78605 66.47862 35842 ft 482 kts 302°
2026-05-07 21:34 13.82261 66.42049 35837 ft 480 kts 302°
2026-05-07 21:34 13.85900 66.36260 35828 ft 480 kts 302°
2026-05-07 21:35 13.89545 66.30457 35842 ft 480 kts 302°
2026-05-07 21:35 13.93183 66.24659 35853 ft 480 kts 302°
2026-05-07 21:36 13.96828 66.18846 35830 ft 481 kts 302°
2026-05-07 21:36 14.00479 66.13020 35849 ft 481 kts 302°
2026-05-07 21:37 14.04119 66.07208 35838 ft 480 kts 302°
2026-05-07 21:37 14.07748 66.01410 35833 ft 480 kts 302°
2026-05-07 21:38 14.11377 65.95609 35858 ft 479 kts 302°
2026-05-07 21:38 14.15014 65.89790 35842 ft 478 kts 302°
2026-05-07 21:39 14.18623 65.84010 35851 ft 480 kts 302°
2026-05-07 21:39 14.22238 65.78218 35881 ft 479 kts 302°
2026-05-07 21:40 14.25848 65.72430 35857 ft 479 kts 302°
2026-05-07 21:40 14.29467 65.66622 35855 ft 480 kts 302°
2026-05-07 21:41 14.33077 65.60826 35877 ft 478 kts 302°
2026-05-07 21:41 14.36689 65.55022 35849 ft 478 kts 302°
2026-05-07 21:42 14.40300 65.49216 35847 ft 480 kts 302°
2026-05-07 21:42 14.43917 65.43395 35858 ft 479 kts 302°
2026-05-07 21:43 14.47527 65.37582 35831 ft 479 kts 302°
2026-05-07 21:43 14.51132 65.31772 35832 ft 479 kts 302°
2026-05-07 21:44 14.54738 65.25958 35857 ft 479 kts 302°
2026-05-07 21:44 14.58022 65.19981 35833 ft 477 kts 287°
2026-05-07 21:45 14.58651 65.16627 35885 ft 476 kts 272°
2026-05-07 21:45 14.58584 65.13201 35863 ft 478 kts 267°
2026-05-07 21:45 14.58331 65.06332 35842 ft 478 kts 267°
2026-05-07 21:46 14.58066 64.99463 35831 ft 477 kts 267°
2026-05-07 21:46 14.57798 64.92594 35850 ft 477 kts 267°
2026-05-07 21:47 14.57527 64.85715 35846 ft 478 kts 267°
2026-05-07 21:47 14.57255 64.78862 35840 ft 477 kts 267°
2026-05-07 21:48 14.56981 64.72009 35841 ft 477 kts 267°
2026-05-07 21:48 14.56705 64.65135 35849 ft 477 kts 267°
2026-05-07 21:49 14.56427 64.58280 35854 ft 477 kts 267°
2026-05-07 21:49 14.56145 64.51388 35864 ft 478 kts 267°
2026-05-07 21:50 14.55864 64.44539 35862 ft 476 kts 267°
2026-05-07 21:50 14.55580 64.37675 35862 ft 476 kts 267°
2026-05-07 21:51 14.55294 64.30814 35861 ft 476 kts 266°
2026-05-07 21:51 14.55006 64.23981 35859 ft 476 kts 266°
2026-05-07 21:52 14.54719 64.17179 35863 ft 476 kts 266°
2026-05-07 21:52 14.54428 64.10352 35864 ft 475 kts 266°
2026-05-07 21:53 14.54135 64.03521 35867 ft 475 kts 266°
2026-05-07 21:53 14.53841 63.96697 35863 ft 475 kts 266°
2026-05-07 21:54 14.53544 63.89872 35855 ft 476 kts 266°
2026-05-07 21:54 14.53244 63.83021 35865 ft 476 kts 266°
2026-05-07 21:55 14.52943 63.76167 35872 ft 475 kts 266°
2026-05-07 21:55 14.52639 63.69327 35844 ft 475 kts 266°
2026-05-07 21:56 14.52335 63.62493 35870 ft 475 kts 266°
2026-05-07 21:56 14.52027 63.55657 35865 ft 474 kts 266°
2026-05-07 21:57 14.51719 63.48840 35840 ft 476 kts 266°
2026-05-07 21:57 14.51408 63.41987 35861 ft 476 kts 266°
2026-05-07 21:58 14.51094 63.35135 35848 ft 476 kts 266°
2026-05-07 21:58 14.50778 63.28281 35825 ft 477 kts 266°
2026-05-07 21:59 14.50461 63.21430 35849 ft 477 kts 266°
2026-05-07 21:59 14.50140 63.14565 35844 ft 476 kts 266°
2026-05-07 22:00 14.49820 63.07735 35832 ft 476 kts 266°
2026-05-07 22:00 14.49496 63.00888 35856 ft 475 kts 266°
2026-05-07 22:01 14.49171 62.94041 35840 ft 477 kts 266°
2026-05-07 22:01 14.48844 62.87191 35839 ft 478 kts 266°
2026-05-07 22:02 14.48513 62.80332 35863 ft 477 kts 266°
2026-05-07 22:02 14.48182 62.73475 35835 ft 478 kts 266°
2026-05-07 22:03 14.47848 62.66637 35848 ft 477 kts 266°
2026-05-07 22:03 14.47514 62.59810 35867 ft 477 kts 266°
2026-05-07 22:04 14.47177 62.52977 35849 ft 479 kts 266°
2026-05-07 22:04 14.46837 62.46118 35867 ft 478 kts 266°
2026-05-07 22:05 14.46495 62.39237 35863 ft 478 kts 266°
2026-05-07 22:05 14.46151 62.32372 35849 ft 479 kts 266°
2026-05-07 22:06 14.45803 62.25489 35875 ft 479 kts 266°
2026-05-07 22:06 14.45455 62.18637 35865 ft 479 kts 266°
2026-05-07 22:07 14.45105 62.11760 35847 ft 479 kts 266°
2026-05-07 22:07 14.44752 62.04884 35872 ft 479 kts 266°
2026-05-07 22:08 14.44396 61.98002 35860 ft 480 kts 266°
2026-05-07 22:08 14.44041 61.91150 35853 ft 481 kts 266°
2026-05-07 22:09 14.43683 61.84279 35877 ft 480 kts 266°
2026-05-07 22:09 14.43320 61.77375 35868 ft 480 kts 266°
2026-05-07 22:10 14.42958 61.70504 35858 ft 480 kts 266°
2026-05-07 22:10 14.42592 61.63624 35866 ft 480 kts 266°
2026-05-07 22:11 14.42223 61.56704 35858 ft 481 kts 266°
2026-05-07 22:11 14.41852 61.49790 35863 ft 481 kts 266°
2026-05-07 22:12 14.41480 61.42887 35871 ft 481 kts 266°
2026-05-07 22:12 14.41105 61.35971 35857 ft 480 kts 266°
2026-05-07 22:13 14.40729 61.29071 35840 ft 481 kts 265°
2026-05-07 22:13 14.40350 61.22170 35868 ft 481 kts 265°
2026-05-07 22:14 14.39971 61.15285 35860 ft 481 kts 265°
2026-05-07 22:14 14.39590 61.08409 35851 ft 482 kts 265°
2026-05-07 22:15 14.39206 61.01504 35873 ft 481 kts 265°
2026-05-07 22:15 14.38820 60.94617 35858 ft 481 kts 265°
2026-05-07 22:16 14.38428 60.87654 35850 ft 482 kts 266°
2026-05-07 22:16 14.38036 60.80725 35878 ft 481 kts 266°
2026-05-07 22:17 14.37641 60.73771 35867 ft 482 kts 266°
2026-05-07 22:17 14.37244 60.66822 35847 ft 482 kts 265°
2026-05-07 22:18 14.36646 60.56421 35858 ft 482 kts 265°
2026-05-07 22:19 14.36245 60.49503 35871 ft 482 kts 265°
2026-05-07 22:19 14.35841 60.42564 35860 ft 482 kts 265°
2026-05-07 22:20 14.35437 60.35654 35859 ft 483 kts 265°
2026-05-07 22:20 14.35031 60.28742 35864 ft 482 kts 265°
2026-05-07 22:21 14.34621 60.21806 35860 ft 483 kts 265°
2026-05-07 22:21 14.34209 60.14851 35863 ft 484 kts 265°
2026-05-07 22:22 14.33794 60.07882 35871 ft 482 kts 265°
2026-05-07 22:22 14.33403 60.00933 35845 ft 484 kts 269°
2026-05-07 22:22 14.33806 59.97490 35863 ft 484 kts 281°
2026-05-07 22:23 14.34495 59.94072 35887 ft 486 kts 280°
2026-05-07 22:23 14.35819 59.87208 35871 ft 485 kts 280°
2026-05-07 22:24 14.37131 59.80351 35854 ft 486 kts 280°
2026-05-07 22:24 14.38441 59.73486 35867 ft 486 kts 280°
2026-05-07 22:25 14.39752 59.66611 35865 ft 485 kts 280°
2026-05-07 22:25 14.41054 59.59768 35849 ft 485 kts 280°
2026-05-07 22:26 14.42360 59.52895 35873 ft 485 kts 280°
2026-05-07 22:26 14.43657 59.46059 35865 ft 485 kts 280°
2026-05-07 22:27 14.44963 59.39165 35846 ft 486 kts 280°
2026-05-07 22:27 14.46258 59.32311 35866 ft 485 kts 280°
2026-05-07 22:28 14.47552 59.25457 35860 ft 485 kts 280°
2026-05-07 22:28 14.48842 59.18611 35850 ft 485 kts 280°
2026-05-07 22:29 14.50134 59.11742 35876 ft 485 kts 280°
2026-05-07 22:29 14.51421 59.04888 35861 ft 486 kts 280°
2026-05-07 22:30 14.52711 58.98010 35844 ft 486 kts 280°
2026-05-07 22:30 14.53997 58.91136 35876 ft 485 kts 280°
2026-05-07 22:31 14.55277 58.84291 35872 ft 484 kts 280°
2026-05-07 22:31 14.56549 58.77471 35845 ft 485 kts 280°
2026-05-07 22:32 14.57822 58.70638 35882 ft 484 kts 280°
2026-05-07 22:32 14.59094 58.63801 35867 ft 484 kts 280°
2026-05-07 22:33 14.60359 58.56977 35839 ft 485 kts 280°
2026-05-07 22:33 14.61632 58.50113 35880 ft 485 kts 280°
2026-05-07 22:34 14.62901 58.43254 35859 ft 484 kts 280°
2026-05-07 22:34 14.64171 58.36375 35865 ft 485 kts 280°
2026-05-07 22:35 14.65436 58.29515 35861 ft 483 kts 280°
2026-05-07 22:35 14.66696 58.22669 35848 ft 483 kts 280°
2026-05-07 22:36 14.67951 58.15836 35874 ft 483 kts 280°
2026-05-07 22:36 14.69209 58.08979 35860 ft 484 kts 280°
2026-05-07 22:37 14.70457 58.02166 35855 ft 484 kts 280°
2026-05-07 22:37 14.71705 57.95339 35873 ft 484 kts 280°
2026-05-07 22:38 14.72952 57.88508 35851 ft 483 kts 280°
2026-05-07 22:38 14.74196 57.81678 35871 ft 483 kts 280°
2026-05-07 22:39 14.75439 57.74840 35867 ft 483 kts 280°
2026-05-07 22:39 14.76683 57.67987 35859 ft 484 kts 280°
2026-05-07 22:40 14.77929 57.61112 35860 ft 484 kts 281°
2026-05-07 22:40 14.79170 57.54256 35864 ft 483 kts 281°
2026-05-07 22:41 14.80406 57.47413 35835 ft 483 kts 280°
2026-05-07 22:41 14.81639 57.40570 35840 ft 484 kts 280°
2026-05-07 22:42 14.82875 57.33704 35850 ft 483 kts 280°
2026-05-07 22:42 14.84104 57.26862 35836 ft 483 kts 280°
2026-05-07 22:43 14.85329 57.20026 35845 ft 484 kts 280°
2026-05-07 22:43 14.86611 57.13181 35847 ft 483 kts 281°
2026-05-07 22:44 14.87906 57.06343 35843 ft 483 kts 281°
2026-05-07 22:44 14.89201 56.99491 35864 ft 483 kts 281°
2026-05-07 22:45 14.90489 56.92663 35871 ft 482 kts 281°
2026-05-07 22:45 14.91774 56.85842 35852 ft 483 kts 281°
2026-05-07 22:46 14.93062 56.78993 35873 ft 483 kts 281°
2026-05-07 22:46 14.94348 56.72141 35870 ft 482 kts 281°
2026-05-07 22:47 14.95626 56.65317 35848 ft 483 kts 281°
2026-05-07 22:47 14.96905 56.58485 35876 ft 482 kts 281°
2026-05-07 22:48 14.98179 56.51659 35860 ft 482 kts 281°
2026-05-07 22:48 14.99456 56.44812 35853 ft 483 kts 281°
2026-05-07 22:49 15.00730 56.37968 35878 ft 483 kts 281°
2026-05-07 22:49 15.02000 56.31133 35856 ft 483 kts 281°
2026-05-07 22:50 15.03268 56.24297 35858 ft 483 kts 281°
2026-05-07 22:50 15.04529 56.17485 35876 ft 482 kts 281°
2026-05-07 22:51 15.05796 56.10632 35849 ft 483 kts 281°
2026-05-07 22:51 15.07061 56.03775 35864 ft 483 kts 281°
2026-05-07 22:52 15.08324 55.96914 35877 ft 482 kts 281°
2026-05-07 22:52 15.09585 55.90059 35853 ft 482 kts 281°
2026-05-07 22:53 15.10842 55.83209 35853 ft 483 kts 281°
2026-05-07 22:53 15.12100 55.76343 35879 ft 482 kts 281°
2026-05-07 22:54 15.13356 55.69476 35857 ft 481 kts 281°
2026-05-07 22:54 15.14605 55.62636 35832 ft 482 kts 281°
2026-05-07 22:55 15.15854 55.55783 35850 ft 483 kts 281°
2026-05-07 22:55 15.17106 55.48914 35851 ft 482 kts 280°
2026-05-07 22:56 15.18346 55.42074 35838 ft 480 kts 280°
2026-05-07 22:56 15.19403 55.35182 35851 ft 483 kts 278°
2026-05-07 22:57 15.20357 55.28288 35844 ft 480 kts 277°
2026-05-07 22:57 15.21309 55.21418 35832 ft 479 kts 277°
2026-05-07 22:58 15.22261 55.14545 35841 ft 480 kts 277°
2026-05-07 22:58 15.23209 55.07672 35854 ft 479 kts 277°
2026-05-07 22:59 15.24153 55.00822 35832 ft 479 kts 277°
2026-05-07 22:59 15.25089 54.94002 35852 ft 477 kts 277°
2026-05-07 23:00 15.26028 54.87149 35857 ft 478 kts 277°
2026-05-07 23:00 15.26967 54.80289 35841 ft 479 kts 277°
2026-05-07 23:01 15.27902 54.73437 35869 ft 478 kts 277°
2026-05-07 23:01 15.28837 54.66570 35857 ft 479 kts 277°
2026-05-07 23:02 15.29770 54.59697 35846 ft 478 kts 277°
2026-05-07 23:02 15.30698 54.52849 35870 ft 477 kts 277°
2026-05-07 23:03 15.31625 54.45992 35850 ft 477 kts 277°
2026-05-07 23:03 15.32550 54.39135 35839 ft 478 kts 277°
2026-05-07 23:04 15.33472 54.32282 35866 ft 478 kts 277°
2026-05-07 23:04 15.34394 54.25411 35841 ft 478 kts 276°
2026-05-07 23:05 15.35311 54.18560 35847 ft 477 kts 276°
2026-05-07 23:05 15.36223 54.11736 35845 ft 477 kts 276°
2026-05-07 23:06 15.37134 54.04904 35821 ft 479 kts 276°
2026-05-07 23:06 15.38042 53.98065 35847 ft 479 kts 276°
2026-05-07 23:07 15.38955 53.91192 35847 ft 478 kts 276°
2026-05-07 23:07 15.39865 53.84312 35823 ft 478 kts 276°
2026-05-07 23:08 15.40770 53.77458 35849 ft 478 kts 276°
2026-05-07 23:08 15.41676 53.70580 35844 ft 477 kts 276°
2026-05-07 23:09 15.42577 53.63719 35832 ft 477 kts 276°
2026-05-07 23:09 15.43647 53.56881 35824 ft 479 kts 286°
2026-05-07 23:09 15.45051 53.53717 35837 ft 480 kts 299°
2026-05-07 23:10 15.46731 53.50702 35879 ft 481 kts 298°
2026-05-07 23:10 15.50048 53.44602 35850 ft 481 kts 298°
2026-05-07 23:11 15.53343 53.38522 35834 ft 482 kts 298°
2026-05-07 23:11 15.56632 53.32436 35858 ft 481 kts 297°
2026-05-07 23:12 15.59918 53.26327 35837 ft 481 kts 297°
2026-05-07 23:12 15.63193 53.20235 35839 ft 481 kts 297°
2026-05-07 23:13 15.66464 53.14142 35853 ft 480 kts 297°
2026-05-07 23:13 15.69746 53.08028 35826 ft 481 kts 297°
2026-05-07 23:14 15.72996 53.01967 35844 ft 481 kts 297°
2026-05-07 23:14 15.76266 52.95864 35850 ft 480 kts 297°
2026-05-07 23:15 15.79538 52.89751 35831 ft 481 kts 297°
2026-05-07 23:15 15.82803 52.83647 35858 ft 480 kts 297°
2026-05-07 23:16 15.86048 52.77573 35860 ft 479 kts 297°
2026-05-07 23:16 15.89319 52.71447 35838 ft 480 kts 297°
2026-05-07 23:17 15.92579 52.65335 35856 ft 481 kts 297°
2026-05-07 23:17 15.95842 52.59215 35841 ft 481 kts 297°
2026-05-07 23:18 15.99107 52.53087 35841 ft 481 kts 297°
2026-05-07 23:18 16.02377 52.46986 35857 ft 481 kts 297°
2026-05-07 23:19 16.05652 52.40872 35835 ft 481 kts 297°
2026-05-07 23:19 16.08925 52.34757 35837 ft 480 kts 297°
2026-05-07 23:20 16.12177 52.28633 35861 ft 480 kts 297°
2026-05-07 23:20 16.15444 52.22503 35835 ft 481 kts 297°
2026-05-07 23:21 16.18709 52.16389 35853 ft 481 kts 297°
2026-05-07 23:21 16.21789 52.10190 35862 ft 480 kts 295°
2026-05-07 23:22 16.24869 52.03963 35844 ft 480 kts 295°
2026-05-07 23:22 16.27941 51.97751 35878 ft 480 kts 295°
2026-05-07 23:23 16.31015 51.91530 35892 ft 480 kts 295°
2026-05-07 23:23 16.34090 51.85299 35885 ft 480 kts 295°
2026-05-07 23:24 16.37160 51.79074 35903 ft 481 kts 295°
2026-05-07 23:24 16.40231 51.72842 35905 ft 481 kts 295°
2026-05-07 23:25 16.43307 51.66593 35916 ft 480 kts 295°
2026-05-07 23:25 16.46384 51.60336 35937 ft 481 kts 295°
2026-05-07 23:26 16.49450 51.54096 35926 ft 481 kts 295°
2026-05-07 23:26 16.52519 51.47846 35947 ft 482 kts 295°
2026-05-07 23:27 16.57120 51.38462 35938 ft 481 kts 295°
2026-05-07 23:27 16.60182 51.32212 35966 ft 480 kts 295°
2026-05-07 23:28 16.63237 51.25968 35953 ft 480 kts 295°
2026-05-07 23:28 16.66291 51.19719 35960 ft 481 kts 295°
2026-05-07 23:29 16.69345 51.13468 35986 ft 481 kts 295°
2026-05-07 23:29 16.72404 51.07198 35967 ft 482 kts 295°
2026-05-07 23:30 16.75465 51.00920 35969 ft 482 kts 295°
2026-05-07 23:30 16.78495 50.94701 35985 ft 481 kts 295°
2026-05-07 23:31 16.81546 50.88443 35991 ft 480 kts 295°
2026-05-07 23:31 16.84595 50.82182 35978 ft 480 kts 295°
2026-05-07 23:32 16.87639 50.75924 35978 ft 481 kts 295°
2026-05-07 23:32 16.90686 50.69657 35996 ft 481 kts 295°
2026-05-07 23:33 16.93728 50.63392 35975 ft 481 kts 295°
2026-05-07 23:33 16.96775 50.57111 35973 ft 483 kts 295°
2026-05-07 23:34 16.99832 50.50806 35992 ft 482 kts 295°
2026-05-07 23:34 17.02878 50.44514 35970 ft 481 kts 295°
2026-05-07 23:35 17.05908 50.38252 35974 ft 481 kts 295°
2026-05-07 23:35 17.08947 50.31963 35984 ft 481 kts 295°
2026-05-07 23:36 17.11986 50.25663 35969 ft 482 kts 295°
2026-05-07 23:36 17.15026 50.19358 35959 ft 483 kts 295°
2026-05-07 23:37 17.18070 50.13040 35960 ft 482 kts 295°
2026-05-07 23:37 17.21103 50.06734 35949 ft 482 kts 295°
2026-05-07 23:38 17.24135 50.00425 35939 ft 482 kts 295°
2026-05-07 23:38 17.27164 49.94117 35939 ft 482 kts 295°
2026-05-07 23:39 17.30826 49.88187 35949 ft 485 kts 305°
2026-05-07 23:39 17.34907 49.82473 35918 ft 486 kts 305°
2026-05-07 23:40 17.38976 49.76771 35930 ft 486 kts 305°
2026-05-07 23:40 17.43044 49.71064 35924 ft 485 kts 305°
2026-05-07 23:41 17.47125 49.65333 35905 ft 486 kts 305°
2026-05-07 23:41 17.51190 49.59620 35904 ft 485 kts 305°
2026-05-07 23:42 17.55237 49.53929 35906 ft 485 kts 305°
2026-05-07 23:42 17.59297 49.48213 35903 ft 486 kts 305°
2026-05-07 23:43 17.63359 49.42486 35885 ft 486 kts 305°
2026-05-07 23:43 17.67415 49.36756 35885 ft 486 kts 305°
2026-05-07 23:44 17.71473 49.31017 35891 ft 487 kts 304°
2026-05-07 23:44 17.75541 49.25262 35879 ft 486 kts 304°
2026-05-07 23:45 17.79595 49.19519 35879 ft 486 kts 304°
2026-05-07 23:45 17.83645 49.13779 35863 ft 486 kts 304°
2026-05-07 23:46 17.87704 49.08017 35868 ft 487 kts 304°
2026-05-07 23:46 17.91762 49.02256 35874 ft 486 kts 304°
2026-05-07 23:47 17.95819 48.96489 35852 ft 486 kts 304°
2026-05-07 23:47 17.99862 48.90737 35867 ft 487 kts 304°
2026-05-07 23:48 18.03907 48.84978 35878 ft 485 kts 304°
2026-05-07 23:48 18.07944 48.79226 35870 ft 484 kts 304°
2026-05-07 23:49 18.11983 48.73463 35849 ft 485 kts 304°
2026-05-07 23:49 18.16014 48.67709 35880 ft 484 kts 304°
2026-05-07 23:50 18.20048 48.61944 35865 ft 485 kts 304°
2026-05-07 23:50 18.24078 48.56182 35862 ft 485 kts 304°
2026-05-07 23:51 18.28101 48.50422 35887 ft 483 kts 304°
2026-05-07 23:51 18.32106 48.44665 35866 ft 483 kts 304°
2026-05-07 23:52 18.36080 48.38914 35870 ft 483 kts 304°
2026-05-07 23:52 18.40056 48.33159 35885 ft 482 kts 303°
2026-05-07 23:53 18.44036 48.27390 35858 ft 483 kts 303°
2026-05-07 23:53 18.48003 48.21637 35880 ft 482 kts 303°
2026-05-07 23:54 18.51986 48.15855 35872 ft 483 kts 303°
2026-05-07 23:54 18.55946 48.10100 35866 ft 481 kts 303°
2026-05-07 23:55 18.59898 48.04354 35880 ft 481 kts 303°
2026-05-07 23:55 18.63846 47.98604 35861 ft 481 kts 303°
2026-05-07 23:56 18.67807 47.92836 35853 ft 481 kts 303°
2026-05-07 23:56 18.71763 47.87064 35864 ft 481 kts 303°
2026-05-07 23:57 18.75711 47.81301 35875 ft 480 kts 303°
2026-05-07 23:57 18.79669 47.75521 35853 ft 482 kts 303°
2026-05-07 23:58 18.83610 47.69754 35881 ft 480 kts 303°
2026-05-07 23:58 18.87544 47.64000 35897 ft 478 kts 303°
2026-05-07 23:59 18.91448 47.58278 35880 ft 478 kts 303°
2026-05-07 23:59 18.95350 47.52557 35902 ft 479 kts 303°
2026-05-08 00:00 18.99284 47.46785 35899 ft 478 kts 303°
2026-05-08 00:00 19.03189 47.41051 35881 ft 479 kts 303°
2026-05-08 00:01 19.07094 47.35313 35906 ft 478 kts 303°
2026-05-08 00:01 19.10978 47.29597 35908 ft 477 kts 302°
2026-05-08 00:02 19.14850 47.23895 35892 ft 478 kts 302°
2026-05-08 00:02 19.18720 47.18191 35899 ft 477 kts 302°
2026-05-08 00:03 19.22571 47.12509 35924 ft 477 kts 302°
2026-05-08 00:03 19.26419 47.06826 35907 ft 476 kts 302°
2026-05-08 00:04 19.30238 47.01184 35919 ft 477 kts 302°
2026-05-08 00:04 19.34059 46.95530 35930 ft 475 kts 302°
2026-05-08 00:05 19.37897 46.89846 35911 ft 476 kts 302°
2026-05-08 00:05 19.41782 46.84087 35915 ft 477 kts 302°
2026-05-08 00:06 19.45668 46.78321 35939 ft 475 kts 302°
2026-05-08 00:06 19.49433 46.72724 35920 ft 475 kts 302°
2026-05-08 00:07 19.53308 46.66963 35918 ft 476 kts 302°
2026-05-08 00:07 19.57152 46.61242 35929 ft 475 kts 302°
2026-05-08 00:08 19.60987 46.55528 35934 ft 476 kts 302°
2026-05-08 00:08 19.64818 46.49815 35927 ft 476 kts 302°
2026-05-08 00:09 19.68682 46.44049 35931 ft 476 kts 302°
2026-05-08 00:09 19.72504 46.38337 35927 ft 476 kts 302°
2026-05-08 00:10 19.76350 46.32585 35930 ft 475 kts 301°
2026-05-08 00:10 19.80172 46.26863 35913 ft 474 kts 301°
2026-05-08 00:11 19.83995 46.21137 35917 ft 475 kts 301°
2026-05-08 00:11 19.87815 46.15406 35918 ft 475 kts 301°
2026-05-08 00:12 19.91651 46.09648 35924 ft 475 kts 301°
2026-05-08 00:12 19.95500 46.03865 35925 ft 475 kts 301°
2026-05-08 00:13 19.99345 45.98079 35937 ft 476 kts 301°
2026-05-08 00:13 20.03168 45.92324 35943 ft 476 kts 301°
2026-05-08 00:14 20.07001 45.86550 35944 ft 476 kts 300°
2026-05-08 00:14 20.10828 45.80773 35934 ft 476 kts 301°
2026-05-08 00:15 20.14503 45.75226 35943 ft 475 kts 300°
2026-05-08 00:15 20.18326 45.69445 35943 ft 475 kts 301°
2026-05-08 00:16 20.22155 45.63656 35935 ft 475 kts 300°
2026-05-08 00:16 20.25966 45.57881 35936 ft 475 kts 300°
2026-05-08 00:17 20.29754 45.52139 35945 ft 476 kts 300°
2026-05-08 00:17 20.33540 45.46394 35899 ft 476 kts 300°
2026-05-08 00:18 20.37307 45.40669 35880 ft 476 kts 300°
2026-05-08 00:18 20.41085 45.34927 35853 ft 475 kts 299°
2026-05-08 00:19 20.44870 45.29164 35875 ft 474 kts 300°
2026-05-08 00:19 20.48516 45.23330 35853 ft 468 kts 290°
2026-05-08 00:20 20.49485 45.20075 35880 ft 456 kts 274°
2026-05-08 00:20 20.49594 45.16754 35880 ft 447 kts 259°
2026-05-08 00:20 20.48485 45.10313 35856 ft 445 kts 255°
2026-05-08 00:21 20.47237 45.03869 35864 ft 444 kts 254°
2026-05-08 00:21 20.45978 44.97481 35913 ft 444 kts 254°
2026-05-08 00:22 20.44702 44.91035 35910 ft 445 kts 254°
2026-05-08 00:22 20.43431 44.84625 35907 ft 444 kts 254°
2026-05-08 00:23 20.42155 44.78201 35967 ft 446 kts 254°
2026-05-08 00:23 20.40877 44.71784 35974 ft 443 kts 254°
2026-05-08 00:24 20.39605 44.65403 35983 ft 442 kts 254°
2026-05-08 00:24 20.38324 44.58996 35976 ft 442 kts 254°
2026-05-08 00:25 20.37038 44.52576 35993 ft 443 kts 254°
2026-05-08 00:25 20.35750 44.46159 35998 ft 442 kts 254°
2026-05-08 00:26 20.34460 44.39742 36000 ft 443 kts 254°
2026-05-08 00:26 20.33166 44.33315 36012 ft 442 kts 254°
2026-05-08 00:27 20.31884 44.26966 36031 ft 440 kts 254°
2026-05-08 00:27 20.30600 44.20626 36038 ft 442 kts 254°
2026-05-08 00:28 20.29319 44.14296 36027 ft 439 kts 254°
2026-05-08 00:28 20.28034 44.07974 36016 ft 438 kts 254°
2026-05-08 00:29 20.26741 44.01619 36039 ft 439 kts 254°
2026-05-08 00:29 20.25459 43.95327 36027 ft 438 kts 254°
2026-05-08 00:30 20.24164 43.88985 36021 ft 439 kts 254°
2026-05-08 00:30 20.22867 43.82643 36006 ft 438 kts 254°
2026-05-08 00:31 20.21571 43.76324 36036 ft 438 kts 254°
2026-05-08 00:31 20.20282 43.70049 36050 ft 440 kts 254°
2026-05-08 00:32 20.18978 43.63719 36039 ft 439 kts 254°
2026-05-08 00:32 20.17686 43.57446 36064 ft 438 kts 254°
2026-05-08 00:33 20.16384 43.51148 36059 ft 438 kts 254°
2026-05-08 00:33 20.15077 43.44826 36065 ft 437 kts 253°
2026-05-08 00:34 20.13765 43.38506 36068 ft 439 kts 254°
2026-05-08 00:34 20.12449 43.32167 36100 ft 438 kts 253°
2026-05-08 00:35 20.11129 43.25827 36096 ft 436 kts 253°
2026-05-08 00:35 20.09818 43.19542 36098 ft 436 kts 253°
2026-05-08 00:36 20.08502 43.13240 36115 ft 436 kts 253°
2026-05-08 00:36 20.07182 43.06933 36107 ft 436 kts 253°
2026-05-08 00:37 20.05862 43.00640 36108 ft 436 kts 253°
2026-05-08 00:38 20.03872 42.91171 36112 ft 437 kts 253°
2026-05-08 00:38 20.02533 42.84859 35973 ft 437 kts 253°
2026-05-08 00:39 20.01200 42.78582 35996 ft 434 kts 253°
2026-05-08 00:39 19.99865 42.72316 36022 ft 434 kts 253°
2026-05-08 00:40 19.98523 42.66024 35990 ft 435 kts 253°
2026-05-08 00:40 19.98126 42.62851 35960 ft 442 kts 265°
2026-05-08 00:40 19.98600 42.59582 35987 ft 453 kts 281°
2026-05-08 00:41 20.00709 42.53213 35988 ft 457 kts 283°
2026-05-08 00:41 20.02761 42.46818 35993 ft 454 kts 282°
2026-05-08 00:42 20.04789 42.40448 35990 ft 454 kts 283°
2026-05-08 00:42 20.06812 42.34088 36089 ft 454 kts 282°
2026-05-08 00:43 20.08831 42.27729 36213 ft 453 kts 282°
2026-05-08 00:43 20.10855 42.21348 36200 ft 453 kts 282°
2026-05-08 00:44 20.12861 42.15008 36212 ft 451 kts 282°
2026-05-08 00:44 20.14873 42.08646 36241 ft 452 kts 282°
2026-05-08 00:45 20.16876 42.02306 36240 ft 452 kts 282°
2026-05-08 00:45 20.18877 41.95960 36239 ft 452 kts 282°
2026-05-08 00:46 20.20870 41.89628 36212 ft 449 kts 282°
2026-05-08 00:46 20.22862 41.83289 36112 ft 452 kts 282°
2026-05-08 00:47 20.24853 41.76950 36114 ft 450 kts 282°
2026-05-08 00:47 20.26832 41.70641 36109 ft 449 kts 282°
2026-05-08 00:48 20.28818 41.64300 36109 ft 449 kts 282°
2026-05-08 00:48 20.30941 41.58076 36113 ft 440 kts 283°
2026-05-08 00:49 20.33063 41.51991 36111 ft 437 kts 283°
2026-05-08 00:49 20.35181 41.45906 36125 ft 440 kts 283°
2026-05-08 00:50 20.37302 41.39811 36169 ft 439 kts 283°
2026-05-08 00:50 20.39425 41.33699 36164 ft 438 kts 283°
2026-05-08 00:51 20.41479 41.27775 36182 ft 437 kts 283°
2026-05-08 00:51 20.43587 41.21695 36171 ft 438 kts 283°
2026-05-08 00:52 20.45696 41.15596 36154 ft 438 kts 283°
2026-05-08 00:52 20.47744 41.09678 36150 ft 437 kts 283°
2026-05-08 00:53 20.49650 41.04156 36151 ft 437 kts 282°
2026-05-08 00:53 20.51741 40.98042 36109 ft 433 kts 280°
2026-05-08 00:53 20.52212 40.94938 36120 ft 418 kts 264°
2026-05-08 00:54 20.51888 40.91906 36139 ft 411 kts 255°
2026-05-08 00:54 20.50982 40.85919 36048 ft 413 kts 256°
2026-05-08 00:55 20.50069 40.80005 36030 ft 411 kts 255°
2026-05-08 00:55 20.49129 40.73944 35958 ft 412 kts 256°
2026-05-08 00:56 20.48207 40.68027 35981 ft 410 kts 255°
2026-05-08 00:56 20.47269 40.62014 35919 ft 412 kts 256°
2026-05-08 00:57 20.46336 40.56049 35914 ft 411 kts 256°
2026-05-08 00:57 20.45399 40.50062 35880 ft 410 kts 256°
2026-05-08 00:58 20.44455 40.44056 35881 ft 408 kts 256°
2026-05-08 00:58 20.43981 40.41047 35702 ft 409 kts 256°
2026-05-08 00:58 20.43934 40.40744 35618 ft 408 kts 256°
2026-05-08 00:58 20.43495 40.37952 34035 ft 411 kts 255°
2026-05-08 00:59 20.43016 40.34936 31826 ft 422 kts 256°
2026-05-08 00:59 20.42521 40.31859 29660 ft 431 kts 258°
2026-05-08 00:59 20.42193 40.28696 27181 ft 442 kts 269°
2026-05-08 00:59 20.42725 40.25486 25005 ft 443 kts 287°
2026-05-08 01:00 20.44094 40.22630 23870 ft 421 kts 297°
2026-05-08 01:00 20.45457 40.19998 23599 ft 384 kts 295°
2026-05-08 01:00 20.46703 40.17533 23109 ft 367 kts 295°
2026-05-08 01:00 20.47928 40.15078 22677 ft 372 kts 295°
2026-05-08 01:01 20.49157 40.12612 22184 ft 370 kts 295°
2026-05-08 01:01 20.50370 40.10175 21678 ft 367 kts 295°
2026-05-08 01:01 20.51575 40.07748 21179 ft 365 kts 294°
2026-05-08 01:01 20.52773 40.05333 20696 ft 362 kts 294°
2026-05-08 01:02 20.53959 40.02943 20212 ft 362 kts 294°
2026-05-08 01:02 20.55146 40.00545 19738 ft 363 kts 294°
2026-05-08 01:02 20.56344 39.98126 19271 ft 362 kts 294°
2026-05-08 01:02 20.57523 39.95745 18814 ft 364 kts 294°
2026-05-08 01:03 20.58716 39.93338 18333 ft 364 kts 294°
2026-05-08 01:03 20.59914 39.90918 17884 ft 364 kts 294°
2026-05-08 01:03 20.61115 39.88485 17391 ft 366 kts 294°
2026-05-08 01:03 20.62315 39.86058 16906 ft 364 kts 294°
2026-05-08 01:04 20.63508 39.83646 16433 ft 360 kts 294°
2026-05-08 01:04 20.64684 39.81263 15946 ft 358 kts 294°
2026-05-08 01:04 20.65855 39.78889 15465 ft 355 kts 294°
2026-05-08 01:04 20.67015 39.76541 14968 ft 354 kts 294°
2026-05-08 01:05 20.68171 39.74197 14495 ft 351 kts 294°
2026-05-08 01:05 20.69320 39.71867 13985 ft 350 kts 294°
2026-05-08 01:05 20.70467 39.69541 13486 ft 349 kts 294°
2026-05-08 01:05 20.71606 39.67225 13006 ft 348 kts 294°
2026-05-08 01:06 20.72748 39.64907 12506 ft 346 kts 295°
2026-05-08 01:06 20.73880 39.62607 11995 ft 345 kts 295°
2026-05-08 01:06 20.75007 39.60319 11521 ft 342 kts 295°
2026-05-08 01:06 20.76119 39.58056 11088 ft 339 kts 295°
2026-05-08 01:07 20.77223 39.55814 10664 ft 336 kts 296°
2026-05-08 01:07 20.78685 39.53859 10317 ft 333 kts 319°
2026-05-08 01:07 20.80723 39.52684 10238 ft 329 kts 341°
2026-05-08 01:07 20.82911 39.52075 10071 ft 312 kts 345°
2026-05-08 01:08 20.84994 39.51512 10011 ft 301 kts 345°
2026-05-08 01:08 20.86960 39.50979 9860 ft 283 kts 345°
2026-05-08 01:08 20.88856 39.50465 9537 ft 273 kts 345°
2026-05-08 01:08 20.90706 39.49964 9252 ft 270 kts 345°
2026-05-08 01:09 20.92560 39.49461 9055 ft 272 kts 345°
2026-05-08 01:09 20.94396 39.48963 8972 ft 267 kts 344°
2026-05-08 01:09 20.96207 39.48473 8876 ft 261 kts 345°
2026-05-08 01:09 20.97965 39.47995 8772 ft 253 kts 345°
2026-05-08 01:10 20.99688 39.47530 8581 ft 252 kts 345°
2026-05-08 01:10 21.01391 39.47068 8363 ft 251 kts 345°
2026-05-08 01:10 21.03111 39.46603 8118 ft 251 kts 345°
2026-05-08 01:10 21.04807 39.46144 7889 ft 250 kts 345°
2026-05-08 01:11 21.06499 39.45686 7659 ft 249 kts 345°
2026-05-08 01:11 21.08195 39.45228 7433 ft 249 kts 346°
2026-05-08 01:11 21.09876 39.44772 7200 ft 248 kts 346°
2026-05-08 01:11 21.11553 39.44320 6954 ft 247 kts 346°
2026-05-08 01:12 21.13230 39.43865 6706 ft 246 kts 346°
2026-05-08 01:12 21.14897 39.43413 6456 ft 245 kts 346°
2026-05-08 01:12 21.16560 39.42963 6222 ft 244 kts 346°
2026-05-08 01:12 21.18223 39.42512 5982 ft 243 kts 346°
2026-05-08 01:13 21.19885 39.42062 5746 ft 243 kts 346°
2026-05-08 01:13 21.21540 39.41613 5497 ft 242 kts 345°
2026-05-08 01:13 21.23033 39.40755 5239 ft 244 kts 316°
2026-05-08 01:13 21.24134 39.39367 4978 ft 243 kts 311°
2026-05-08 01:14 21.25235 39.37950 4704 ft 244 kts 311°
2026-05-08 01:14 21.26321 39.36551 4602 ft 236 kts 311°
2026-05-08 01:14 21.27360 39.35219 4680 ft 228 kts 311°
2026-05-08 01:14 21.28372 39.33923 4657 ft 224 kts 311°
2026-05-08 01:15 21.29385 39.32623 4675 ft 224 kts 311°
2026-05-08 01:15 21.30391 39.31334 4677 ft 223 kts 311°
2026-05-08 01:15 21.31491 39.30158 4666 ft 221 kts 330°
2026-05-08 01:15 21.32916 39.29546 4696 ft 218 kts 341°
2026-05-08 01:16 21.34352 39.28988 4684 ft 218 kts 341°
2026-05-08 01:16 21.35785 39.28426 4668 ft 216 kts 341°
2026-05-08 01:16 21.37230 39.27861 4682 ft 219 kts 340°
2026-05-08 01:16 21.38675 39.27294 4679 ft 218 kts 340°
2026-05-08 01:17 21.40109 39.26730 4664 ft 215 kts 340°
2026-05-08 01:17 21.41529 39.26176 4653 ft 217 kts 341°
2026-05-08 01:17 21.42964 39.25608 4668 ft 219 kts 341°
2026-05-08 01:17 21.44398 39.25046 4661 ft 218 kts 340°
2026-05-08 01:18 21.45838 39.24450 4393 ft 226 kts 340°
2026-05-08 01:18 21.47315 39.23851 3971 ft 224 kts 341°
2026-05-08 01:18 21.48768 39.23273 3706 ft 221 kts 341°
2026-05-08 01:18 21.50213 39.22702 3339 ft 218 kts 341°
2026-05-08 01:19 21.51650 39.22139 3058 ft 217 kts 341°
2026-05-08 01:19 21.53064 39.21586 2713 ft 211 kts 341°
2026-05-08 01:19 21.54416 39.21057 2420 ft 200 kts 341°
2026-05-08 01:19 21.55687 39.20560 2154 ft 184 kts 341°
2026-05-08 01:20 21.56827 39.20112 1977 ft 163 kts 341°
2026-05-08 01:20 21.57861 39.19708 1741 ft 153 kts 341°
2026-05-08 01:20 21.58815 39.19335 1556 ft 137 kts 341°
2026-05-08 01:20 21.59699 39.18990 1355 ft 133 kts 341°
2026-05-08 01:21 21.60526 39.18667 1189 ft 131 kts 341°
2026-05-08 01:21 21.61387 39.18331 1024 ft 133 kts 340°
2026-05-08 01:21 21.62244 39.17997 858 ft 133 kts 340°
2026-05-08 01:21 21.63114 39.17657 686 ft 133 kts 340°
2026-05-08 01:22 21.63983 39.17321 514 ft 135 kts 340°
2026-05-08 01:22 21.64857 39.16986 352 ft 136 kts 339°
2026-05-08 01:22 21.65735 39.16639 189 ft 137 kts 340°
2026-05-08 01:22 21.66611 39.16293 58 ft 127 kts 340°
2026-05-08 01:23 21.67268 39.16036 58 ft 74 kts 339°
2026-05-08 01:23 21.67600 39.15906 57 ft 41 kts 340°
2026-05-08 01:23 21.67867 39.15803 58 ft 37 kts 340°
2026-05-08 01:23 21.68071 39.15706 57 ft 29 kts 328°
2026-05-08 01:24 21.68180 39.15607 57 ft 14 kts 314°
2026-05-08 01:24 21.68238 39.15541 57 ft 10 kts 311°
2026-05-08 01:24 21.68284 39.15478 57 ft 10 kts 306°
2026-05-08 01:24 21.68355 39.15396 57 ft 17 kts 327°
2026-05-08 01:25 21.68430 39.15365 57 ft 9 kts 340°
2026-05-08 01:25 21.68493 39.15340 57 ft 10 kts 340°
2026-05-08 01:25 21.68555 39.15315 57 ft 12 kts 339°
2026-05-08 01:25 21.68658 39.15273 57 ft 14 kts 338°
2026-05-08 01:26 21.68716 39.15199 57 ft 14 kts 252°
2026-05-08 01:26 21.68681 39.15093 57 ft 16 kts 251°
2026-05-08 01:26 21.68680 39.15002 57 ft 10 kts 317°
2026-05-08 01:26 21.68754 39.14969 57 ft 12 kts 346°
2026-05-08 01:27 21.68832 39.14940 57 ft 13 kts 339°
2026-05-08 01:27 21.68924 39.14896 57 ft 14 kts 331°
2026-05-08 01:27 21.69026 39.14853 57 ft 16 kts 340°
2026-05-08 01:27 21.69150 39.14808 57 ft 21 kts 340°
2026-05-08 01:28 21.69291 39.14751 57 ft 21 kts 339°
2026-05-08 01:28 21.69417 39.14700 57 ft 17 kts 340°
2026-05-08 01:28 21.69526 39.14657 57 ft 15 kts 339°
2026-05-08 01:28 21.69623 39.14619 57 ft 13 kts 339°
2026-05-08 01:29 21.69710 39.14584 57 ft 14 kts 339°
2026-05-08 01:29 21.69798 39.14536 57 ft 13 kts 321°
2026-05-08 01:29 21.69872 39.14490 57 ft 10 kts 339°
2026-05-08 01:29 21.69934 39.14462 57 ft 6 kts 303°
2026-05-08 01:30 21.69932 39.14421 57 ft 4 kts 256°
2026-05-08 01:30 21.69925 39.14396 57 ft 2 kts 252°
2026-05-08 01:30 21.69922 39.14388 57 ft 0 kts 251°